Wetterdaten: Donnerstag, 04.10.2012
Datum Zeit Temp. Innen Temp. Aussen UV X Diff Temp. Feuchte Inne Feuchte Auss Sonnenschein Luftdruck Regen ab 0,1 Wind Sonnenschein T Regendauer Windben
04.10.2012 00:00 19,1 C 12,3 C 0,0 UV-I 0,0 C 64 % 96 % 0 % 1007,3 hPa 0,0 l/m 2,4 km/h (1 Bft) 0 min 0 min 0,0 km/h (0 Bft)
04.10.2012 00:02 19,1 C 12,3 C 0,0 UV-I 0,0 C 64 % 96 % 0 % 1007,3 hPa 0,0 l/m 2,0 km/h (1 Bft) 0 min 0 min 0,0 km/h (0 Bft)
04.10.2012 00:04 19,1 C 12,3 C 0,0 UV-I 0,0 C 64 % 96 % 0 % 1007,3 hPa 0,0 l/m 2,0 km/h (1 Bft) 0 min 0 min 0,0 km/h (0 Bft)
04.10.2012 00:06 19,1 C 12,3 C 0,0 UV-I 0,0 C 64 % 96 % 0 % 1007,1 hPa 0,0 l/m 2,4 km/h (1 Bft) 0 min 0 min 6,0 km/h (2 Bft)
04.10.2012 00:08 19,1 C 12,3 C 0,0 UV-I 0,0 C 64 % 96 % 0 % 1007,1 hPa 0,0 l/m 1,6 km/h (1 Bft) 0 min 0 min 0,0 km/h (0 Bft)
04.10.2012 00:10 19,1 C 12,2 C 0,0 UV-I 0,0 C 64 % 96 % 0 % 1007,1 hPa 0,0 l/m 1,2 km/h (1 Bft) 0 min 0 min 0,0 km/h (0 Bft)
04.10.2012 00:12 19,1 C 12,3 C 0,0 UV-I 0,0 C 64 % 96 % 0 % 1007,1 hPa 0,0 l/m 1,2 km/h (1 Bft) 0 min 0 min 6,4 km/h (2 Bft)
04.10.2012 00:14 19,1 C 12,3 C 0,0 UV-I 0,0 C 64 % 96 % 0 % 1007,1 hPa 0,0 l/m 2,0 km/h (1 Bft) 0 min 0 min 12,8 km/h (3 Bft)
04.10.2012 00:16 19,1 C 12,3 C 0,0 UV-I 0,0 C 64 % 96 % 0 % 1007,1 hPa 0,0 l/m 2,0 km/h (1 Bft) 0 min 0 min 4,4 km/h (1 Bft)
04.10.2012 00:18 19,1 C 12,3 C 0,0 UV-I 0,0 C 64 % 96 % 0 % 1007,1 hPa 0,0 l/m 2,0 km/h (1 Bft) 0 min 0 min 4,4 km/h (1 Bft)
04.10.2012 00:20 19,1 C 12,3 C 0,0 UV-I 0,0 C 64 % 96 % 0 % 1007,1 hPa 0,0 l/m 2,0 km/h (1 Bft) 0 min 0 min 12,8 km/h (3 Bft)
04.10.2012 00:22 19,1 C 12,4 C 0,0 UV-I 0,0 C 64 % 96 % 0 % 1007,1 hPa 0,0 l/m 2,0 km/h (1 Bft) 0 min 0 min 7,2 km/h (2 Bft)
04.10.2012 00:24 19,1 C 12,4 C 0,0 UV-I 0,0 C 64 % 96 % 0 % 1007,1 hPa 0,0 l/m 2,4 km/h (1 Bft) 0 min 0 min 12,4 km/h (3 Bft)
04.10.2012 00:26 19,1 C 12,4 C 0,0 UV-I 0,0 C 64 % 96 % 0 % 1007,1 hPa 0,0 l/m 2,4 km/h (1 Bft) 0 min 0 min 6,8 km/h (2 Bft)
04.10.2012 00:28 19,1 C 12,4 C 0,0 UV-I 0,0 C 64 % 96 % 0 % 1007,1 hPa 0,0 l/m 2,0 km/h (1 Bft) 0 min 0 min 4,0 km/h (1 Bft)
04.10.2012 00:30 19,1 C 12,5 C 0,0 UV-I 0,0 C 64 % 96 % 0 % 1007,1 hPa 0,0 l/m 2,4 km/h (1 Bft) 0 min 0 min 5,2 km/h (1 Bft)
04.10.2012 00:32 19,1 C 12,4 C 0,0 UV-I 0,0 C 64 % 96 % 0 % 1007,1 hPa 0,0 l/m 2,4 km/h (1 Bft) 0 min 0 min 0,0 km/h (0 Bft)
04.10.2012 00:34 19,1 C 12,4 C 0,0 UV-I 0,0 C 64 % 96 % 0 % 1007,1 hPa 0,0 l/m 2,4 km/h (1 Bft) 0 min 0 min 9,2 km/h (2 Bft)
04.10.2012 00:36 19,1 C 12,4 C 0,0 UV-I 0,0 C 64 % 96 % 0 % 1007,1 hPa 0,0 l/m 2,0 km/h (1 Bft) 0 min 0 min 0,0 km/h (0 Bft)
04.10.2012 00:38 19,1 C 12,4 C 0,0 UV-I 0,0 C 64 % 96 % 0 % 1007,1 hPa 0,0 l/m 2,0 km/h (1 Bft) 0 min 0 min 0,0 km/h (0 Bft)
04.10.2012 00:40 19,1 C 12,4 C 0,0 UV-I 0,0 C 64 % 96 % 0 % 1007,1 hPa 0,0 l/m 1,6 km/h (1 Bft) 0 min 0 min 0,0 km/h (0 Bft)
04.10.2012 00:42 19,1 C 12,4 C 0,0 UV-I 0,0 C 64 % 96 % 0 % 1007,1 hPa 0,0 l/m 1,2 km/h (1 Bft) 0 min 0 min 4,0 km/h (1 Bft)
04.10.2012 00:44 19,1 C 12,5 C 0,0 UV-I 0,0 C 64 % 96 % 0 % 1007,1 hPa 0,0 l/m 0,8 km/h (0 Bft) 0 min 0 min 0,0 km/h (0 Bft)
04.10.2012 00:46 19,1 C 12,5 C 0,0 UV-I 0,0 C 64 % 96 % 0 % 1006,9 hPa 0,0 l/m 0,8 km/h (0 Bft) 0 min 0 min 0,0 km/h (0 Bft)
04.10.2012 00:48 19,1 C 12,5 C 0,0 UV-I 0,0 C 64 % 96 % 0 % 1006,9 hPa 0,0 l/m 1,2 km/h (1 Bft) 0 min 0 min 5,6 km/h (1 Bft)
04.10.2012 00:50 19,1 C 12,5 C 0,0 UV-I 0,0 C 64 % 96 % 0 % 1006,9 hPa 0,0 l/m 1,6 km/h (1 Bft) 0 min 0 min 7,6 km/h (2 Bft)
04.10.2012 00:52 19,1 C 12,6 C 0,0 UV-I 0,0 C 64 % 97 % 0 % 1006,9 hPa 0,0 l/m 2,0 km/h (1 Bft) 0 min 0 min 6,0 km/h (2 Bft)
04.10.2012 00:54 19,1 C 12,5 C 0,0 UV-I 0,0 C 64 % 97 % 0 % 1006,9 hPa 0,0 l/m 2,4 km/h (1 Bft) 0 min 0 min 0,0 km/h (0 Bft)
04.10.2012 00:56 19,1 C 12,6 C 0,0 UV-I 0,0 C 64 % 97 % 0 % 1006,9 hPa 0,0 l/m 2,0 km/h (1 Bft) 0 min 0 min 0,0 km/h (0 Bft)
04.10.2012 00:58 19,1 C 12,6 C 0,0 UV-I 0,0 C 64 % 97 % 0 % 1006,9 hPa 0,0 l/m 2,0 km/h (1 Bft) 0 min 0 min 0,0 km/h (0 Bft)
04.10.2012 01:00 19,1 C 12,7 C 0,0 UV-I 0,0 C 64 % 97 % 0 % 1006,9 hPa 0,0 l/m 2,4 km/h (1 Bft) 0 min 0 min 14,1 km/h (3 Bft)
04.10.2012 01:02 19,1 C 12,7 C 0,0 UV-I 0,0 C 64 % 97 % 0 % 1006,9 hPa 0,0 l/m 1,6 km/h (1 Bft) 0 min 0 min 5,2 km/h (1 Bft)
04.10.2012 01:04 19,1 C 12,7 C 0,0 UV-I 0,0 C 64 % 97 % 0 % 1006,9 hPa 0,0 l/m 1,6 km/h (1 Bft) 0 min 0 min 0,0 km/h (0 Bft)
04.10.2012 01:06 19,1 C 12,7 C 0,0 UV-I 0,0 C 64 % 97 % 0 % 1006,7 hPa 0,0 l/m 2,0 km/h (1 Bft) 0 min 0 min 6,0 km/h (2 Bft)
04.10.2012 01:08 19,1 C 12,6 C 0,0 UV-I 0,0 C 64 % 97 % 0 % 1006,7 hPa 0,0 l/m 1,6 km/h (1 Bft) 0 min 0 min 4,0 km/h (1 Bft)
04.10.2012 01:10 19,1 C 12,7 C 0,0 UV-I 0,0 C 64 % 97 % 0 % 1006,7 hPa 0,0 l/m 1,2 km/h (1 Bft) 0 min 0 min 4,0 km/h (1 Bft)
04.10.2012 01:12 19,1 C 12,6 C 0,0 UV-I 0,0 C 64 % 97 % 0 % 1006,7 hPa 0,0 l/m 1,6 km/h (1 Bft) 0 min 0 min 4,4 km/h (1 Bft)
04.10.2012 01:14 19,1 C 12,7 C 0,0 UV-I 0,0 C 64 % 97 % 0 % 1006,7 hPa 0,0 l/m 2,0 km/h (1 Bft) 0 min 0 min 8,4 km/h (2 Bft)
04.10.2012 01:16 19,1 C 12,7 C 0,0 UV-I 0,0 C 64 % 97 % 0 % 1006,7 hPa 0,0 l/m 2,8 km/h (1 Bft) 0 min 0 min 8,0 km/h (2 Bft)
04.10.2012 01:18 19,1 C 12,7 C 0,0 UV-I 0,0 C 64 % 97 % 0 % 1006,7 hPa 0,0 l/m 3,2 km/h (1 Bft) 0 min 0 min 9,6 km/h (2 Bft)
04.10.2012 01:20 19,1 C 12,8 C 0,0 UV-I 0,0 C 64 % 97 % 0 % 1006,7 hPa 0,0 l/m 3,6 km/h (1 Bft) 0 min 0 min 4,4 km/h (1 Bft)
04.10.2012 01:22 19,1 C 12,8 C 0,0 UV-I 0,0 C 64 % 97 % 0 % 1006,7 hPa 0,0 l/m 4,4 km/h (1 Bft) 0 min 0 min 8,0 km/h (2 Bft)
04.10.2012 01:24 19,1 C 12,8 C 0,0 UV-I 0,0 C 64 % 97 % 0 % 1006,7 hPa 0,0 l/m 4,4 km/h (1 Bft) 0 min 0 min 6,4 km/h (2 Bft)
04.10.2012 01:26 19,1 C 12,8 C 0,0 UV-I 0,0 C 64 % 97 % 0 % 1006,9 hPa 0,2 l/m 3,2 km/h (1 Bft) 0 min 0 min 0,0 km/h (0 Bft)
04.10.2012 01:28 19,1 C 12,8 C 0,0 UV-I 0,0 C 64 % 97 % 0 % 1006,9 hPa 1,6 l/m 2,8 km/h (1 Bft) 0 min 2 min 7,2 km/h (2 Bft)
04.10.2012 01:30 19,1 C 12,9 C 0,0 UV-I 0,0 C 64 % 97 % 0 % 1006,9 hPa 0,0 l/m 3,2 km/h (1 Bft) 0 min 2 min 4,8 km/h (1 Bft)
04.10.2012 01:32 19,1 C 12,8 C 0,0 UV-I 0,0 C 64 % 97 % 0 % 1006,9 hPa 0,2 l/m 2,8 km/h (1 Bft) 0 min 2 min 7,6 km/h (2 Bft)
04.10.2012 01:34 19,1 C 12,8 C 0,0 UV-I 0,0 C 64 % 97 % 0 % 1006,9 hPa 0,2 l/m 2,8 km/h (1 Bft) 0 min 2 min 5,2 km/h (1 Bft)
04.10.2012 01:36 19,1 C 12,8 C 0,0 UV-I 0,0 C 64 % 97 % 0 % 1006,9 hPa 0,0 l/m 2,4 km/h (1 Bft) 0 min 2 min 0,0 km/h (0 Bft)
04.10.2012 01:38 19,1 C 12,7 C 0,0 UV-I 0,0 C 64 % 97 % 0 % 1006,9 hPa 0,1 l/m 2,8 km/h (1 Bft) 0 min 2 min 9,6 km/h (2 Bft)
04.10.2012 01:40 19,1 C 12,7 C 0,0 UV-I 0,0 C 64 % 97 % 0 % 1006,9 hPa 0,2 l/m 2,4 km/h (1 Bft) 0 min 2 min 0,0 km/h (0 Bft)
04.10.2012 01:42 19,1 C 12,7 C 0,0 UV-I 0,0 C 64 % 97 % 0 % 1006,9 hPa 0,0 l/m 1,6 km/h (1 Bft) 0 min 2 min 0,0 km/h (0 Bft)
04.10.2012 01:44 19,1 C 12,7 C 0,0 UV-I 0,0 C 64 % 97 % 0 % 1006,9 hPa 0,4 l/m 1,6 km/h (1 Bft) 0 min 2 min 8,4 km/h (2 Bft)
04.10.2012 01:46 19,1 C 12,7 C 0,0 UV-I 0,0 C 64 % 97 % 0 % 1006,9 hPa 0,2 l/m 1,6 km/h (1 Bft) 0 min 2 min 0,0 km/h (0 Bft)
04.10.2012 01:48 19,1 C 12,6 C 0,0 UV-I 0,0 C 64 % 97 % 0 % 1006,9 hPa 0,0 l/m 2,4 km/h (1 Bft) 0 min 2 min 24,9 km/h (4 Bft)
04.10.2012 01:50 19,1 C 12,7 C 0,0 UV-I 0,0 C 64 % 96 % 0 % 1006,9 hPa 0,4 l/m 3,2 km/h (1 Bft) 0 min 2 min 24,9 km/h (4 Bft)
04.10.2012 01:52 19,1 C 12,5 C 0,0 UV-I 0,0 C 64 % 96 % 0 % 1006,9 hPa 0,6 l/m 4,0 km/h (1 Bft) 0 min 2 min 25,3 km/h (4 Bft)
04.10.2012 01:54 19,1 C 12,5 C 0,0 UV-I 0,0 C 64 % 96 % 0 % 1006,9 hPa 0,0 l/m 5,2 km/h (1 Bft) 0 min 2 min 9,2 km/h (2 Bft)
04.10.2012 01:56 19,1 C 12,2 C 0,0 UV-I 0,0 C 64 % 96 % 0 % 1006,9 hPa 0,7 l/m 6,0 km/h (2 Bft) 0 min 2 min 16,5 km/h (3 Bft)
04.10.2012 01:58 19,1 C 12,0 C 0,0 UV-I 0,0 C 64 % 95 % 0 % 1006,9 hPa 0,0 l/m 7,2 km/h (2 Bft) 0 min 2 min 8,4 km/h (2 Bft)
04.10.2012 02:00 19,1 C 11,9 C 0,0 UV-I 0,0 C 64 % 95 % 0 % 1006,9 hPa 0,1 l/m 6,8 km/h (2 Bft) 0 min 2 min 25,3 km/h (4 Bft)
04.10.2012 02:02 19,1 C 11,9 C 0,0 UV-I 0,0 C 64 % 95 % 0 % 1006,9 hPa 0,0 l/m 6,0 km/h (2 Bft) 0 min 2 min 0,0 km/h (0 Bft)
04.10.2012 02:04 19,1 C 11,7 C 0,0 UV-I 0,0 C 64 % 95 % 0 % 1006,9 hPa 0,0 l/m 5,2 km/h (1 Bft) 0 min 2 min 7,6 km/h (2 Bft)
04.10.2012 02:06 19,1 C 11,7 C 0,0 UV-I 0,0 C 64 % 95 % 0 % 1007,3 hPa 0,1 l/m 4,4 km/h (1 Bft) 0 min 2 min 0,0 km/h (0 Bft)
04.10.2012 02:08 19,1 C 11,7 C 0,0 UV-I 0,0 C 64 % 96 % 0 % 1007,3 hPa 0,4 l/m 2,4 km/h (1 Bft) 0 min 2 min 0,0 km/h (0 Bft)
04.10.2012 02:10 19,1 C 11,5 C 0,0 UV-I 0,0 C 64 % 96 % 0 % 1007,3 hPa 0,0 l/m 1,6 km/h (1 Bft) 0 min 2 min 0,0 km/h (0 Bft)
04.10.2012 02:12 19,1 C 11,5 C 0,0 UV-I 0,0 C 64 % 96 % 0 % 1007,3 hPa 0,2 l/m 1,2 km/h (1 Bft) 0 min 2 min 6,8 km/h (2 Bft)
04.10.2012 02:14 19,0 C 11,5 C 0,0 UV-I 0,0 C 63 % 96 % 0 % 1007,3 hPa 0,0 l/m 1,2 km/h (1 Bft) 0 min 2 min 0,0 km/h (0 Bft)
04.10.2012 02:16 19,0 C 11,3 C 0,0 UV-I 0,0 C 63 % 96 % 0 % 1007,3 hPa 0,0 l/m 0,8 km/h (0 Bft) 0 min 2 min 0,0 km/h (0 Bft)
04.10.2012 02:18 19,0 C 11,3 C 0,0 UV-I 0,0 C 63 % 96 % 0 % 1007,3 hPa 0,0 l/m 0,8 km/h (0 Bft) 0 min 2 min 0,0 km/h (0 Bft)
04.10.2012 02:20 19,0 C 11,2 C 0,0 UV-I 0,0 C 63 % 96 % 0 % 1007,3 hPa 0,1 l/m 0,8 km/h (0 Bft) 0 min 2 min 0,0 km/h (0 Bft)
04.10.2012 02:22 19,0 C 11,2 C 0,0 UV-I 0,0 C 63 % 96 % 0 % 1007,3 hPa 0,0 l/m 0,4 km/h (0 Bft) 0 min 2 min 0,0 km/h (0 Bft)
04.10.2012 02:24 19,0 C 11,3 C 0,0 UV-I 0,0 C 63 % 96 % 0 % 1007,3 hPa 0,0 l/m 0,0 km/h (0 Bft) 0 min 2 min 0,0 km/h (0 Bft)
04.10.2012 02:26 19,0 C 11,3 C 0,0 UV-I 0,0 C 63 % 96 % 0 % 1007,2 hPa 0,0 l/m 0,0 km/h (0 Bft) 0 min 2 min 0,0 km/h (0 Bft)
04.10.2012 02:28 19,0 C 11,2 C 0,0 UV-I 0,0 C 63 % 96 % 0 % 1007,2 hPa 0,0 l/m 0,0 km/h (0 Bft) 0 min 2 min 0,0 km/h (0 Bft)
04.10.2012 02:30 19,0 C 11,2 C 0,0 UV-I 0,0 C 63 % 96 % 0 % 1007,2 hPa 0,0 l/m 0,0 km/h (0 Bft) 0 min 2 min 0,0 km/h (0 Bft)
04.10.2012 02:32 18,9 C 11,1 C 0,0 UV-I 0,0 C 63 % 96 % 0 % 1007,2 hPa 0,0 l/m 0,0 km/h (0 Bft) 0 min 2 min 0,0 km/h (0 Bft)
04.10.2012 02:34 18,9 C 11,1 C 0,0 UV-I 0,0 C 63 % 96 % 0 % 1007,2 hPa 0,0 l/m 0,0 km/h (0 Bft) 0 min 2 min 0,0 km/h (0 Bft)
04.10.2012 02:36 18,9 C 11,1 C 0,0 UV-I 0,0 C 63 % 96 % 0 % 1007,2 hPa 0,0 l/m 0,0 km/h (0 Bft) 0 min 2 min 0,0 km/h (0 Bft)
04.10.2012 02:38 18,9 C 11,1 C 0,0 UV-I 0,0 C 63 % 96 % 0 % 1007,2 hPa 0,0 l/m 0,0 km/h (0 Bft) 0 min 2 min 0,0 km/h (0 Bft)
04.10.2012 02:40 18,9 C 11,1 C 0,0 UV-I 0,0 C 63 % 96 % 0 % 1007,2 hPa 0,0 l/m 0,0 km/h (0 Bft) 0 min 2 min 0,0 km/h (0 Bft)
04.10.2012 02:42 18,9 C 11,1 C 0,0 UV-I 0,0 C 63 % 96 % 0 % 1007,2 hPa 0,0 l/m 0,0 km/h (0 Bft) 0 min 2 min 0,0 km/h (0 Bft)
04.10.2012 02:44 18,8 C 11,0 C 0,0 UV-I 0,0 C 63 % 96 % 0 % 1007,2 hPa 0,0 l/m 0,0 km/h (0 Bft) 0 min 2 min 0,0 km/h (0 Bft)
04.10.2012 02:46 18,8 C 11,0 C 0,0 UV-I 0,0 C 63 % 96 % 0 % 1007,0 hPa 0,0 l/m 0,0 km/h (0 Bft) 0 min 2 min 0,0 km/h (0 Bft)
04.10.2012 02:48 18,8 C 11,1 C 0,0 UV-I 0,0 C 63 % 97 % 0 % 1007,0 hPa 0,0 l/m 0,0 km/h (0 Bft) 0 min 2 min 0,0 km/h (0 Bft)
04.10.2012 02:50 18,8 C 11,1 C 0,0 UV-I 0,0 C 63 % 97 % 0 % 1007,0 hPa 0,0 l/m 0,0 km/h (0 Bft) 0 min 2 min 0,0 km/h (0 Bft)
04.10.2012 02:52 18,8 C 11,1 C 0,0 UV-I 0,0 C 63 % 97 % 0 % 1007,0 hPa 0,0 l/m 0,0 km/h (0 Bft) 0 min 2 min 0,0 km/h (0 Bft)
04.10.2012 02:54 18,8 C 11,0 C 0,0 UV-I 0,0 C 63 % 96 % 0 % 1007,0 hPa 0,0 l/m 0,0 km/h (0 Bft) 0 min 2 min 0,0 km/h (0 Bft)
04.10.2012 02:56 18,8 C 11,0 C 0,0 UV-I 0,0 C 63 % 96 % 0 % 1007,0 hPa 0,0 l/m 0,0 km/h (0 Bft) 0 min 2 min 0,0 km/h (0 Bft)
04.10.2012 02:58 18,8 C 11,0 C 0,0 UV-I 0,0 C 63 % 96 % 0 % 1007,0 hPa 0,0 l/m 0,0 km/h (0 Bft) 0 min 2 min 0,0 km/h (0 Bft)
04.10.2012 03:00 18,8 C 10,9 C 0,0 UV-I 0,0 C 63 % 96 % 0 % 1007,0 hPa 0,0 l/m 0,0 km/h (0 Bft) 0 min 2 min 0,0 km/h (0 Bft)
04.10.2012 03:02 18,8 C 11,0 C 0,0 UV-I 0,0 C 63 % 96 % 0 % 1007,0 hPa 0,0 l/m 0,0 km/h (0 Bft) 0 min 2 min 0,0 km/h (0 Bft)
04.10.2012 03:04 18,8 C 10,9 C 0,0 UV-I 0,0 C 63 % 96 % 0 % 1007,0 hPa 0,0 l/m 0,0 km/h (0 Bft) 0 min 2 min 0,0 km/h (0 Bft)
04.10.2012 03:06 18,8 C 10,9 C 0,0 UV-I 0,0 C 63 % 96 % 0 % 1007,3 hPa 0,1 l/m 0,0 km/h (0 Bft) 0 min 2 min 0,0 km/h (0 Bft)
04.10.2012 03:08 18,8 C 10,9 C 0,0 UV-I 0,0 C 63 % 96 % 0 % 1007,3 hPa 0,0 l/m 0,0 km/h (0 Bft) 0 min 2 min 0,0 km/h (0 Bft)
04.10.2012 03:10 18,7 C 10,9 C 0,0 UV-I 0,0 C 63 % 96 % 0 % 1007,3 hPa 0,1 l/m 0,0 km/h (0 Bft) 0 min 2 min 0,0 km/h (0 Bft)
04.10.2012 03:12 18,8 C 10,9 C 0,0 UV-I 0,0 C 63 % 96 % 0 % 1007,3 hPa 0,2 l/m 0,0 km/h (0 Bft) 0 min 2 min 0,0 km/h (0 Bft)
04.10.2012 03:14 18,8 C 10,9 C 0,0 UV-I 0,0 C 63 % 96 % 0 % 1007,3 hPa 0,0 l/m 0,0 km/h (0 Bft) 0 min 2 min 0,0 km/h (0 Bft)
04.10.2012 03:16 18,7 C 10,9 C 0,0 UV-I 0,0 C 63 % 96 % 0 % 1007,3 hPa 0,1 l/m 0,0 km/h (0 Bft) 0 min 2 min 0,0 km/h (0 Bft)
04.10.2012 03:18 18,7 C 10,9 C 0,0 UV-I 0,0 C 63 % 96 % 0 % 1007,3 hPa 0,2 l/m 0,0 km/h (0 Bft) 0 min 2 min 0,0 km/h (0 Bft)
04.10.2012 03:20 18,7 C 10,9 C 0,0 UV-I 0,0 C 63 % 96 % 0 % 1007,3 hPa 0,0 l/m 0,0 km/h (0 Bft) 0 min 2 min 0,0 km/h (0 Bft)
04.10.2012 03:22 18,7 C 10,9 C 0,0 UV-I 0,0 C 63 % 96 % 0 % 1007,3 hPa 0,2 l/m 0,0 km/h (0 Bft) 0 min 2 min 0,0 km/h (0 Bft)
04.10.2012 03:24 18,7 C 10,9 C 0,0 UV-I 0,0 C 63 % 96 % 0 % 1007,3 hPa 0,1 l/m 0,0 km/h (0 Bft) 0 min 2 min 0,0 km/h (0 Bft)
04.10.2012 03:26 18,7 C 10,9 C 0,0 UV-I 0,0 C 63 % 96 % 0 % 1006,8 hPa 0,0 l/m 0,0 km/h (0 Bft) 0 min 2 min 0,0 km/h (0 Bft)
04.10.2012 03:28 18,7 C 10,8 C 0,0 UV-I 0,0 C 63 % 96 % 0 % 1006,8 hPa 0,2 l/m 0,0 km/h (0 Bft) 0 min 2 min 0,0 km/h (0 Bft)
04.10.2012 03:30 18,7 C 10,8 C 0,0 UV-I 0,0 C 63 % 96 % 0 % 1006,8 hPa 0,2 l/m 0,0 km/h (0 Bft) 0 min 2 min 0,0 km/h (0 Bft)
04.10.2012 03:32 18,7 C 10,9 C 0,0 UV-I 0,0 C 63 % 96 % 0 % 1006,8 hPa 0,0 l/m 0,0 km/h (0 Bft) 0 min 2 min 0,0 km/h (0 Bft)
04.10.2012 03:34 18,7 C 10,9 C 0,0 UV-I 0,0 C 63 % 96 % 0 % 1006,8 hPa 0,2 l/m 0,0 km/h (0 Bft) 0 min 2 min 0,0 km/h (0 Bft)
04.10.2012 03:36 18,7 C 10,9 C 0,0 UV-I 0,0 C 63 % 96 % 0 % 1006,8 hPa 0,1 l/m 0,0 km/h (0 Bft) 0 min 2 min 0,0 km/h (0 Bft)
04.10.2012 03:38 18,7 C 10,9 C 0,0 UV-I 0,0 C 63 % 96 % 0 % 1006,8 hPa 0,0 l/m 0,4 km/h (0 Bft) 0 min 2 min 0,0 km/h (0 Bft)
04.10.2012 03:40 18,7 C 10,9 C 0,0 UV-I 0,0 C 63 % 96 % 0 % 1006,8 hPa 0,5 l/m 0,4 km/h (0 Bft) 0 min 2 min 0,0 km/h (0 Bft)
04.10.2012 03:42 18,7 C 10,8 C 0,0 UV-I 0,0 C 63 % 97 % 0 % 1006,8 hPa 0,2 l/m 0,4 km/h (0 Bft) 0 min 2 min 0,0 km/h (0 Bft)
04.10.2012 03:44 18,7 C 10,8 C 0,0 UV-I 0,0 C 64 % 96 % 0 % 1006,8 hPa 0,0 l/m 0,4 km/h (0 Bft) 0 min 2 min 0,0 km/h (0 Bft)
04.10.2012 03:46 18,7 C 10,8 C 0,0 UV-I 0,0 C 64 % 96 % 0 % 1006,2 hPa 0,1 l/m 0,4 km/h (0 Bft) 0 min 2 min 0,0 km/h (0 Bft)
04.10.2012 03:48 18,7 C 10,8 C 0,0 UV-I 0,0 C 63 % 96 % 0 % 1006,2 hPa 0,4 l/m 0,4 km/h (0 Bft) 0 min 2 min 4,8 km/h (1 Bft)
04.10.2012 03:50 18,7 C 10,8 C 0,0 UV-I 0,0 C 63 % 96 % 0 % 1006,2 hPa 0,0 l/m 0,0 km/h (0 Bft) 0 min 2 min 0,0 km/h (0 Bft)
04.10.2012 03:52 18,7 C 10,8 C 0,0 UV-I 0,0 C 63 % 97 % 0 % 1006,2 hPa 0,2 l/m 0,0 km/h (0 Bft) 0 min 2 min 0,0 km/h (0 Bft)
04.10.2012 03:54 18,6 C 10,8 C 0,0 UV-I 0,0 C 63 % 96 % 0 % 1006,2 hPa 0,4 l/m 0,4 km/h (0 Bft) 0 min 2 min 4,8 km/h (1 Bft)
04.10.2012 03:56 18,7 C 10,8 C 0,0 UV-I 0,0 C 63 % 97 % 0 % 1006,2 hPa 0,0 l/m 0,4 km/h (0 Bft) 0 min 2 min 4,0 km/h (1 Bft)
04.10.2012 03:58 18,6 C 10,8 C 0,0 UV-I 0,0 C 63 % 97 % 0 % 1006,2 hPa 0,2 l/m 1,2 km/h (1 Bft) 0 min 2 min 6,8 km/h (2 Bft)
04.10.2012 04:00 18,6 C 10,9 C 0,0 UV-I 0,0 C 63 % 97 % 0 % 1006,2 hPa 0,0 l/m 1,6 km/h (1 Bft) 0 min 2 min 4,0 km/h (1 Bft)
04.10.2012 04:02 18,6 C 10,8 C 0,0 UV-I 0,0 C 63 % 97 % 0 % 1006,2 hPa 0,2 l/m 1,6 km/h (1 Bft) 0 min 2 min 0,0 km/h (0 Bft)
04.10.2012 04:04 18,6 C 10,9 C 0,0 UV-I 0,0 C 63 % 97 % 0 % 1006,2 hPa 0,0 l/m 2,0 km/h (1 Bft) 0 min 2 min 4,0 km/h (1 Bft)
04.10.2012 04:06 18,6 C 10,9 C 0,0 UV-I 0,0 C 63 % 97 % 0 % 1006,0 hPa 0,0 l/m 2,0 km/h (1 Bft) 0 min 2 min 5,6 km/h (1 Bft)
04.10.2012 04:08 18,6 C 10,8 C 0,0 UV-I 0,0 C 63 % 97 % 0 % 1006,0 hPa 0,2 l/m 1,6 km/h (1 Bft) 0 min 2 min 0,0 km/h (0 Bft)
04.10.2012 04:10 18,6 C 10,9 C 0,0 UV-I 0,0 C 63 % 97 % 0 % 1006,0 hPa 0,2 l/m 1,2 km/h (1 Bft) 0 min 2 min 0,0 km/h (0 Bft)
04.10.2012 04:12 18,6 C 10,9 C 0,0 UV-I 0,0 C 63 % 97 % 0 % 1006,0 hPa 0,0 l/m 0,8 km/h (0 Bft) 0 min 2 min 0,0 km/h (0 Bft)
04.10.2012 04:14 18,6 C 10,9 C 0,0 UV-I 0,0 C 63 % 97 % 0 % 1006,0 hPa 0,2 l/m 0,8 km/h (0 Bft) 0 min 2 min 4,4 km/h (1 Bft)
04.10.2012 04:16 18,6 C 10,9 C 0,0 UV-I 0,0 C 63 % 97 % 0 % 1006,0 hPa 0,2 l/m 0,8 km/h (0 Bft) 0 min 2 min 0,0 km/h (0 Bft)
04.10.2012 04:18 18,6 C 10,8 C 0,0 UV-I 0,0 C 63 % 97 % 0 % 1006,0 hPa 0,0 l/m 0,4 km/h (0 Bft) 0 min 2 min 0,0 km/h (0 Bft)
04.10.2012 04:20 18,6 C 10,9 C 0,0 UV-I 0,0 C 63 % 97 % 0 % 1006,0 hPa 0,1 l/m 0,4 km/h (0 Bft) 0 min 2 min 0,0 km/h (0 Bft)
04.10.2012 04:22 18,6 C 10,9 C 0,0 UV-I 0,0 C 63 % 97 % 0 % 1006,0 hPa 0,1 l/m 0,4 km/h (0 Bft) 0 min 2 min 0,0 km/h (0 Bft)
04.10.2012 04:24 18,6 C 10,8 C 0,0 UV-I 0,0 C 63 % 97 % 0 % 1006,0 hPa 0,0 l/m 0,0 km/h (0 Bft) 0 min 2 min 0,0 km/h (0 Bft)
04.10.2012 04:26 18,6 C 10,8 C 0,0 UV-I 0,0 C 63 % 97 % 0 % 1005,9 hPa 0,1 l/m 0,4 km/h (0 Bft) 0 min 2 min 4,4 km/h (1 Bft)
04.10.2012 04:28 18,6 C 10,8 C 0,0 UV-I 0,0 C 63 % 97 % 0 % 1005,9 hPa 0,0 l/m 1,2 km/h (1 Bft) 0 min 2 min 5,2 km/h (1 Bft)
04.10.2012 04:30 18,6 C 10,9 C 0,0 UV-I 0,0 C 63 % 97 % 0 % 1005,9 hPa 0,0 l/m 1,2 km/h (1 Bft) 0 min 2 min 0,0 km/h (0 Bft)
04.10.2012 04:32 18,6 C 10,8 C 0,0 UV-I 0,0 C 63 % 97 % 0 % 1005,9 hPa 0,1 l/m 1,6 km/h (1 Bft) 0 min 2 min 0,0 km/h (0 Bft)
04.10.2012 04:34 18,6 C 10,8 C 0,0 UV-I 0,0 C 63 % 97 % 0 % 1005,9 hPa 0,0 l/m 1,6 km/h (1 Bft) 0 min 2 min 0,0 km/h (0 Bft)
04.10.2012 04:36 18,6 C 10,9 C 0,0 UV-I 0,0 C 63 % 97 % 0 % 1005,9 hPa 0,0 l/m 1,6 km/h (1 Bft) 0 min 2 min 0,0 km/h (0 Bft)
04.10.2012 04:38 18,6 C 10,9 C 0,0 UV-I 0,0 C 63 % 97 % 0 % 1005,9 hPa 0,0 l/m 0,8 km/h (0 Bft) 0 min 2 min 4,0 km/h (1 Bft)
04.10.2012 04:40 18,6 C 10,9 C 0,0 UV-I 0,0 C 63 % 97 % 0 % 1005,9 hPa 0,2 l/m 0,4 km/h (0 Bft) 0 min 2 min 0,0 km/h (0 Bft)
04.10.2012 04:42 18,6 C 10,9 C 0,0 UV-I 0,0 C 63 % 97 % 0 % 1005,9 hPa 0,0 l/m 0,8 km/h (0 Bft) 0 min 2 min 0,0 km/h (0 Bft)
04.10.2012 04:44 18,6 C 10,9 C 0,0 UV-I 0,0 C 63 % 97 % 0 % 1005,9 hPa 0,2 l/m 0,8 km/h (0 Bft) 0 min 2 min 0,0 km/h (0 Bft)
04.10.2012 04:46 18,6 C 10,9 C 0,0 UV-I 0,0 C 63 % 97 % 0 % 1005,4 hPa 0,1 l/m 0,8 km/h (0 Bft) 0 min 2 min 0,0 km/h (0 Bft)
04.10.2012 04:48 18,6 C 10,8 C 0,0 UV-I 0,0 C 64 % 97 % 0 % 1005,4 hPa 0,0 l/m 0,8 km/h (0 Bft) 0 min 2 min 0,0 km/h (0 Bft)
04.10.2012 04:50 18,6 C 10,9 C 0,0 UV-I 0,0 C 63 % 97 % 0 % 1005,4 hPa 0,0 l/m 0,4 km/h (0 Bft) 0 min 2 min 0,0 km/h (0 Bft)
04.10.2012 04:52 18,6 C 10,8 C 0,0 UV-I 0,0 C 63 % 97 % 0 % 1005,4 hPa 0,1 l/m 0,0 km/h (0 Bft) 0 min 2 min 0,0 km/h (0 Bft)
04.10.2012 04:54 18,6 C 10,8 C 0,0 UV-I 0,0 C 64 % 97 % 0 % 1005,4 hPa 0,0 l/m 0,0 km/h (0 Bft) 0 min 2 min 0,0 km/h (0 Bft)
04.10.2012 04:56 18,6 C 10,8 C 0,0 UV-I 0,0 C 63 % 97 % 0 % 1005,4 hPa 0,5 l/m 0,0 km/h (0 Bft) 0 min 2 min 0,0 km/h (0 Bft)
04.10.2012 04:58 18,6 C 10,8 C 0,0 UV-I 0,0 C 64 % 97 % 0 % 1005,4 hPa 0,0 l/m 0,0 km/h (0 Bft) 0 min 2 min 0,0 km/h (0 Bft)
04.10.2012 05:00 18,6 C 10,8 C 0,0 UV-I 0,0 C 63 % 97 % 0 % 1005,4 hPa 0,0 l/m 0,0 km/h (0 Bft) 0 min 2 min 0,0 km/h (0 Bft)
04.10.2012 05:02 18,5 C 10,8 C 0,0 UV-I 0,0 C 64 % 97 % 0 % 1005,4 hPa 0,1 l/m 0,0 km/h (0 Bft) 0 min 2 min 0,0 km/h (0 Bft)
04.10.2012 05:04 18,5 C 10,8 C 0,0 UV-I 0,0 C 64 % 97 % 0 % 1005,4 hPa 0,0 l/m 0,0 km/h (0 Bft) 0 min 2 min 0,0 km/h (0 Bft)
04.10.2012 05:06 18,5 C 10,8 C 0,0 UV-I 0,0 C 64 % 97 % 0 % 1005,3 hPa 0,1 l/m 0,0 km/h (0 Bft) 0 min 2 min 0,0 km/h (0 Bft)
04.10.2012 05:08 18,5 C 10,8 C 0,0 UV-I 0,0 C 64 % 97 % 0 % 1005,3 hPa 0,1 l/m 0,0 km/h (0 Bft) 0 min 2 min 0,0 km/h (0 Bft)
04.10.2012 05:10 18,5 C 10,9 C 0,0 UV-I 0,0 C 64 % 97 % 0 % 1005,3 hPa 0,0 l/m 0,0 km/h (0 Bft) 0 min 2 min 0,0 km/h (0 Bft)
04.10.2012 05:12 18,5 C 10,9 C 0,0 UV-I 0,0 C 64 % 97 % 0 % 1005,3 hPa 0,1 l/m 0,0 km/h (0 Bft) 0 min 2 min 0,0 km/h (0 Bft)
04.10.2012 05:14 18,6 C 10,9 C 0,0 UV-I 0,0 C 64 % 97 % 0 % 1005,3 hPa 0,1 l/m 0,0 km/h (0 Bft) 0 min 2 min 0,0 km/h (0 Bft)
04.10.2012 05:16 18,5 C 10,9 C 0,0 UV-I 0,0 C 64 % 97 % 0 % 1005,3 hPa 0,0 l/m 0,0 km/h (0 Bft) 0 min 2 min 0,0 km/h (0 Bft)
04.10.2012 05:18 18,5 C 10,9 C 0,0 UV-I 0,0 C 64 % 97 % 0 % 1005,3 hPa 0,1 l/m 0,0 km/h (0 Bft) 0 min 2 min 0,0 km/h (0 Bft)
04.10.2012 05:20 18,5 C 11,0 C 0,0 UV-I 0,0 C 64 % 97 % 0 % 1005,3 hPa 0,2 l/m 0,0 km/h (0 Bft) 0 min 2 min 0,0 km/h (0 Bft)
04.10.2012 05:22 18,5 C 11,0 C 0,0 UV-I 0,0 C 64 % 97 % 0 % 1005,3 hPa 0,0 l/m 0,0 km/h (0 Bft) 0 min 2 min 0,0 km/h (0 Bft)
04.10.2012 05:24 18,5 C 11,1 C 0,0 UV-I 0,0 C 64 % 97 % 0 % 1005,3 hPa 0,5 l/m 0,0 km/h (0 Bft) 0 min 2 min 0,0 km/h (0 Bft)
04.10.2012 05:26 18,5 C 11,1 C 0,0 UV-I 0,0 C 64 % 97 % 0 % 1005,0 hPa 0,1 l/m 0,0 km/h (0 Bft) 0 min 2 min 0,0 km/h (0 Bft)
04.10.2012 05:28 18,5 C 11,1 C 0,0 UV-I 0,0 C 64 % 97 % 0 % 1005,0 hPa 0,0 l/m 0,0 km/h (0 Bft) 0 min 2 min 0,0 km/h (0 Bft)
04.10.2012 05:30 18,5 C 11,1 C 0,0 UV-I 0,0 C 64 % 97 % 0 % 1005,0 hPa 0,0 l/m 0,0 km/h (0 Bft) 0 min 2 min 0,0 km/h (0 Bft)
04.10.2012 05:32 18,5 C 11,1 C 0,0 UV-I 0,0 C 64 % 97 % 0 % 1005,0 hPa 0,0 l/m 0,0 km/h (0 Bft) 0 min 2 min 0,0 km/h (0 Bft)
04.10.2012 05:34 18,5 C 11,0 C 0,0 UV-I 0,0 C 64 % 97 % 0 % 1005,0 hPa 0,0 l/m 0,0 km/h (0 Bft) 0 min 2 min 0,0 km/h (0 Bft)
04.10.2012 05:36 18,5 C 11,0 C 0,0 UV-I 0,0 C 64 % 97 % 0 % 1005,0 hPa 0,0 l/m 0,0 km/h (0 Bft) 0 min 2 min 0,0 km/h (0 Bft)
04.10.2012 05:38 18,5 C 11,0 C 0,0 UV-I 0,0 C 64 % 97 % 0 % 1005,0 hPa 0,2 l/m 0,0 km/h (0 Bft) 0 min 2 min 0,0 km/h (0 Bft)
04.10.2012 05:40 18,5 C 11,1 C 0,0 UV-I 0,0 C 64 % 97 % 0 % 1005,0 hPa 0,0 l/m 0,0 km/h (0 Bft) 0 min 2 min 0,0 km/h (0 Bft)
04.10.2012 05:42 18,5 C 11,1 C 0,0 UV-I 0,0 C 64 % 97 % 0 % 1005,0 hPa 0,1 l/m 0,0 km/h (0 Bft) 0 min 2 min 0,0 km/h (0 Bft)
04.10.2012 05:44 18,5 C 11,1 C 0,0 UV-I 0,0 C 64 % 97 % 0 % 1005,0 hPa 0,2 l/m 0,0 km/h (0 Bft) 0 min 2 min 0,0 km/h (0 Bft)
04.10.2012 05:46 18,5 C 11,1 C 0,0 UV-I 0,0 C 64 % 97 % 0 % 1004,9 hPa 0,0 l/m 0,0 km/h (0 Bft) 0 min 2 min 0,0 km/h (0 Bft)
04.10.2012 05:48 18,5 C 11,1 C 0,0 UV-I 0,0 C 64 % 97 % 0 % 1004,9 hPa 0,1 l/m 0,0 km/h (0 Bft) 0 min 2 min 0,0 km/h (0 Bft)
04.10.2012 05:50 18,5 C 11,1 C 0,0 UV-I 0,0 C 64 % 98 % 0 % 1004,9 hPa 0,0 l/m 0,0 km/h (0 Bft) 0 min 2 min 0,0 km/h (0 Bft)
04.10.2012 05:52 18,5 C 11,1 C 0,0 UV-I 0,0 C 64 % 97 % 0 % 1004,9 hPa 0,0 l/m 0,0 km/h (0 Bft) 0 min 2 min 0,0 km/h (0 Bft)
04.10.2012 05:54 18,5 C 11,2 C 0,0 UV-I 0,0 C 64 % 97 % 0 % 1004,9 hPa 0,1 l/m 0,0 km/h (0 Bft) 0 min 2 min 0,0 km/h (0 Bft)
04.10.2012 05:56 18,5 C 11,2 C 0,0 UV-I 0,0 C 64 % 98 % 0 % 1004,9 hPa 0,2 l/m 0,0 km/h (0 Bft) 0 min 2 min 0,0 km/h (0 Bft)
04.10.2012 05:58 18,5 C 11,2 C 0,0 UV-I 0,0 C 64 % 98 % 0 % 1004,9 hPa 0,0 l/m 0,0 km/h (0 Bft) 0 min 2 min 0,0 km/h (0 Bft)
04.10.2012 06:00 18,5 C 11,2 C 0,0 UV-I 0,0 C 64 % 97 % 0 % 1004,9 hPa 0,5 l/m 0,0 km/h (0 Bft) 0 min 2 min 0,0 km/h (0 Bft)
04.10.2012 06:02 18,5 C 11,2 C 0,0 UV-I 0,0 C 64 % 97 % 0 % 1004,9 hPa 0,0 l/m 0,0 km/h (0 Bft) 0 min 2 min 0,0 km/h (0 Bft)
04.10.2012 06:04 18,5 C 11,2 C 0,0 UV-I 0,0 C 64 % 97 % 0 % 1004,9 hPa 0,4 l/m 0,0 km/h (0 Bft) 0 min 2 min 0,0 km/h (0 Bft)
04.10.2012 06:06 18,5 C 11,2 C 0,0 UV-I 0,0 C 64 % 97 % 0 % 1004,5 hPa 0,0 l/m 0,0 km/h (0 Bft) 0 min 2 min 0,0 km/h (0 Bft)
04.10.2012 06:08 18,5 C 11,2 C 0,0 UV-I 0,0 C 64 % 98 % 0 % 1004,5 hPa 0,0 l/m 0,0 km/h (0 Bft) 0 min 2 min 0,0 km/h (0 Bft)
04.10.2012 06:10 18,5 C 11,2 C 0,0 UV-I 0,0 C 64 % 98 % 0 % 1004,5 hPa 0,2 l/m 0,0 km/h (0 Bft) 0 min 2 min 0,0 km/h (0 Bft)
04.10.2012 06:12 18,5 C 11,3 C 0,0 UV-I 0,0 C 64 % 98 % 0 % 1004,5 hPa 0,1 l/m 0,0 km/h (0 Bft) 0 min 2 min 0,0 km/h (0 Bft)
04.10.2012 06:14 18,5 C 11,2 C 0,0 UV-I 0,0 C 64 % 98 % 0 % 1004,5 hPa 0,0 l/m 0,0 km/h (0 Bft) 0 min 2 min 0,0 km/h (0 Bft)
04.10.2012 06:16 18,5 C 11,2 C 0,0 UV-I 0,0 C 64 % 98 % 0 % 1004,5 hPa 0,4 l/m 0,0 km/h (0 Bft) 0 min 2 min 0,0 km/h (0 Bft)
04.10.2012 06:18 18,5 C 11,3 C 0,0 UV-I 0,0 C 64 % 98 % 0 % 1004,5 hPa 0,1 l/m 0,0 km/h (0 Bft) 0 min 2 min 0,0 km/h (0 Bft)
04.10.2012 06:20 18,5 C 11,3 C 0,0 UV-I 0,0 C 64 % 98 % 0 % 1004,5 hPa 0,0 l/m 0,0 km/h (0 Bft) 0 min 2 min 0,0 km/h (0 Bft)
04.10.2012 06:22 18,5 C 11,3 C 0,0 UV-I 0,0 C 64 % 98 % 0 % 1004,5 hPa 0,0 l/m 0,0 km/h (0 Bft) 0 min 2 min 0,0 km/h (0 Bft)
04.10.2012 06:24 18,5 C 11,3 C 0,0 UV-I 0,0 C 64 % 98 % 0 % 1004,5 hPa 0,0 l/m 0,0 km/h (0 Bft) 0 min 2 min 0,0 km/h (0 Bft)
04.10.2012 06:26 18,5 C 11,3 C 0,0 UV-I 0,0 C 64 % 98 % 0 % 1004,2 hPa 0,0 l/m 0,0 km/h (0 Bft) 0 min 2 min 0,0 km/h (0 Bft)
04.10.2012 06:28 18,5 C 11,3 C 0,0 UV-I 0,0 C 64 % 98 % 0 % 1004,2 hPa 0,1 l/m 0,0 km/h (0 Bft) 0 min 2 min 0,0 km/h (0 Bft)
04.10.2012 06:30 18,5 C 11,3 C 0,0 UV-I 0,0 C 64 % 98 % 0 % 1004,2 hPa 0,0 l/m 0,8 km/h (0 Bft) 0 min 2 min 6,0 km/h (2 Bft)
04.10.2012 06:32 18,5 C 11,3 C 0,0 UV-I 0,0 C 64 % 98 % 0 % 1004,2 hPa 0,0 l/m 1,2 km/h (1 Bft) 0 min 2 min 8,4 km/h (2 Bft)
04.10.2012 06:34 18,5 C 11,3 C 0,0 UV-I 0,0 C 64 % 98 % 0 % 1004,2 hPa 0,1 l/m 1,6 km/h (1 Bft) 0 min 2 min 0,0 km/h (0 Bft)
04.10.2012 06:36 18,6 C 11,3 C 0,0 UV-I 0,0 C 64 % 98 % 0 % 1004,2 hPa 0,0 l/m 1,6 km/h (1 Bft) 0 min 2 min 0,0 km/h (0 Bft)
04.10.2012 06:38 18,6 C 11,3 C 0,0 UV-I 0,0 C 64 % 98 % 0 % 1004,2 hPa 0,0 l/m 1,6 km/h (1 Bft) 0 min 2 min 0,0 km/h (0 Bft)
04.10.2012 06:40 18,6 C 11,3 C 0,0 UV-I 0,0 C 64 % 98 % 0 % 1004,2 hPa 0,0 l/m 1,6 km/h (1 Bft) 0 min 2 min 0,0 km/h (0 Bft)
04.10.2012 06:42 18,6 C 11,3 C 0,0 UV-I 0,0 C 64 % 98 % 0 % 1004,2 hPa 0,0 l/m 0,8 km/h (0 Bft) 0 min 2 min 0,0 km/h (0 Bft)
04.10.2012 06:44 18,6 C 11,3 C 0,0 UV-I 0,0 C 64 % 98 % 0 % 1004,2 hPa 0,0 l/m 0,0 km/h (0 Bft) 0 min 2 min 0,0 km/h (0 Bft)
04.10.2012 06:46 18,6 C 11,3 C 0,0 UV-I 0,0 C 64 % 98 % 0 % 1003,6 hPa 0,0 l/m 0,0 km/h (0 Bft) 0 min 2 min 0,0 km/h (0 Bft)
04.10.2012 06:48 18,6 C 11,3 C 0,0 UV-I 0,0 C 64 % 98 % 0 % 1003,6 hPa 0,0 l/m 0,0 km/h (0 Bft) 0 min 2 min 4,0 km/h (1 Bft)
04.10.2012 06:50 18,6 C 11,4 C 0,0 UV-I 0,0 C 64 % 98 % 0 % 1003,6 hPa 0,0 l/m 2,0 km/h (1 Bft) 0 min 2 min 12,0 km/h (2 Bft)
04.10.2012 06:52 18,6 C 11,4 C 0,0 UV-I 0,0 C 64 % 98 % 0 % 1003,6 hPa 0,1 l/m 3,2 km/h (1 Bft) 0 min 2 min 12,4 km/h (3 Bft)
04.10.2012 06:54 18,6 C 11,3 C 0,0 UV-I 0,0 C 64 % 98 % 0 % 1003,6 hPa 0,4 l/m 5,6 km/h (1 Bft) 0 min 2 min 9,6 km/h (2 Bft)
04.10.2012 06:56 18,6 C 11,3 C 0,0 UV-I 0,0 C 64 % 98 % 0 % 1003,6 hPa 0,0 l/m 6,4 km/h (2 Bft) 0 min 2 min 7,6 km/h (2 Bft)
04.10.2012 06:58 18,6 C 11,3 C 0,0 UV-I 0,0 C 64 % 98 % 0 % 1003,6 hPa 0,2 l/m 6,4 km/h (2 Bft) 0 min 2 min 0,0 km/h (0 Bft)
04.10.2012 07:00 18,6 C 11,3 C 0,0 UV-I 0,0 C 64 % 98 % 0 % 1003,6 hPa 0,0 l/m 6,0 km/h (2 Bft) 0 min 2 min 25,7 km/h (4 Bft)
04.10.2012 07:02 18,6 C 11,4 C 0,0 UV-I 0,0 C 64 % 98 % 0 % 1003,6 hPa 0,4 l/m 4,0 km/h (1 Bft) 0 min 2 min 0,0 km/h (0 Bft)
04.10.2012 07:04 18,6 C 11,4 C 0,0 UV-I 0,0 C 64 % 98 % 0 % 1003,6 hPa 0,7 l/m 2,0 km/h (1 Bft) 0 min 2 min 11,2 km/h (2 Bft)
04.10.2012 07:06 18,6 C 11,4 C 0,0 UV-I 0,0 C 64 % 98 % 0 % 1003,6 hPa 0,0 l/m 2,4 km/h (1 Bft) 0 min 2 min 11,6 km/h (2 Bft)
04.10.2012 07:08 18,6 C 11,4 C 0,0 UV-I 0,0 C 64 % 98 % 0 % 1003,6 hPa 0,5 l/m 3,6 km/h (1 Bft) 0 min 2 min 9,2 km/h (2 Bft)
04.10.2012 07:10 18,6 C 11,3 C 0,0 UV-I 0,0 C 64 % 98 % 0 % 1003,6 hPa 1,0 l/m 4,4 km/h (1 Bft) 0 min 2 min 5,2 km/h (1 Bft)
04.10.2012 07:12 18,6 C 11,2 C 0,0 UV-I 0,0 C 64 % 98 % 0 % 1003,6 hPa 0,0 l/m 5,6 km/h (1 Bft) 0 min 2 min 0,0 km/h (0 Bft)
04.10.2012 07:14 18,6 C 11,3 C 0,0 UV-I 0,0 C 64 % 98 % 0 % 1003,6 hPa 0,7 l/m 6,8 km/h (2 Bft) 0 min 2 min 13,7 km/h (3 Bft)
04.10.2012 07:16 18,6 C 11,3 C 0,0 UV-I 0,0 C 64 % 98 % 0 % 1003,6 hPa 0,7 l/m 7,2 km/h (2 Bft) 0 min 2 min 10,0 km/h (2 Bft)
04.10.2012 07:18 18,6 C 11,2 C 0,0 UV-I 0,0 C 64 % 98 % 0 % 1003,6 hPa 0,0 l/m 6,4 km/h (2 Bft) 0 min 2 min 9,6 km/h (2 Bft)
04.10.2012 07:20 18,7 C 11,2 C 0,0 UV-I 0,0 C 64 % 98 % 0 % 1003,6 hPa 0,2 l/m 6,4 km/h (2 Bft) 0 min 2 min 6,0 km/h (2 Bft)
04.10.2012 07:22 18,6 C 11,1 C 0,0 UV-I 0,0 C 64 % 98 % 0 % 1003,6 hPa 0,4 l/m 6,4 km/h (2 Bft) 0 min 2 min 8,8 km/h (2 Bft)
04.10.2012 07:24 18,7 C 11,1 C 0,0 UV-I 0,0 C 64 % 98 % 0 % 1003,6 hPa 0,0 l/m 6,8 km/h (2 Bft) 0 min 2 min 7,6 km/h (2 Bft)
04.10.2012 07:26 18,7 C 11,1 C 0,0 UV-I 0,0 C 64 % 98 % 0 % 1003,4 hPa 0,1 l/m 6,4 km/h (2 Bft) 0 min 2 min 7,6 km/h (2 Bft)
04.10.2012 07:28 18,7 C 11,1 C 0,0 UV-I 0,0 C 64 % 98 % 0 % 1003,4 hPa 0,1 l/m 5,6 km/h (1 Bft) 0 min 2 min 0,0 km/h (0 Bft)
04.10.2012 07:30 18,7 C 11,0 C 0,0 UV-I 0,0 C 64 % 98 % 0 % 1003,4 hPa 0,0 l/m 4,8 km/h (1 Bft) 0 min 2 min 8,4 km/h (2 Bft)
04.10.2012 07:32 18,7 C 11,1 C 0,0 UV-I 0,0 C 64 % 98 % 0 % 1003,4 hPa 0,1 l/m 4,8 km/h (1 Bft) 0 min 2 min 6,4 km/h (2 Bft)
04.10.2012 07:34 18,7 C 11,1 C 0,0 UV-I 0,0 C 64 % 98 % 0 % 1003,4 hPa 0,0 l/m 4,0 km/h (1 Bft) 0 min 2 min 8,8 km/h (2 Bft)
04.10.2012 07:36 18,7 C 11,1 C 0,0 UV-I 0,0 C 64 % 98 % 0 % 1003,4 hPa 0,0 l/m 3,2 km/h (1 Bft) 0 min 2 min 0,0 km/h (0 Bft)
04.10.2012 07:38 18,6 C 11,0 C 0,0 UV-I 0,0 C 64 % 98 % 0 % 1003,4 hPa 0,1 l/m 2,8 km/h (1 Bft) 0 min 2 min 0,0 km/h (0 Bft)
04.10.2012 07:40 18,6 C 11,0 C 0,0 UV-I 0,0 C 64 % 98 % 0 % 1003,4 hPa 0,2 l/m 2,8 km/h (1 Bft) 0 min 2 min 0,0 km/h (0 Bft)
04.10.2012 07:42 18,6 C 11,0 C 0,0 UV-I 0,0 C 64 % 98 % 0 % 1003,4 hPa 0,0 l/m 2,0 km/h (1 Bft) 0 min 2 min 0,0 km/h (0 Bft)
04.10.2012 07:44 18,6 C 11,0 C 0,0 UV-I 0,0 C 64 % 98 % 0 % 1003,4 hPa 0,1 l/m 1,6 km/h (1 Bft) 0 min 2 min 0,0 km/h (0 Bft)
04.10.2012 07:46 18,6 C 11,0 C 0,0 UV-I 0,0 C 64 % 98 % 0 % 1003,6 hPa 0,1 l/m 0,4 km/h (0 Bft) 0 min 2 min 0,0 km/h (0 Bft)
04.10.2012 07:48 18,6 C 10,9 C 0,0 UV-I 0,0 C 64 % 98 % 0 % 1003,6 hPa 0,0 l/m 0,0 km/h (0 Bft) 0 min 2 min 0,0 km/h (0 Bft)
04.10.2012 07:50 18,6 C 10,9 C 0,0 UV-I 0,0 C 64 % 98 % 0 % 1003,6 hPa 0,1 l/m 0,0 km/h (0 Bft) 0 min 2 min 0,0 km/h (0 Bft)
04.10.2012 07:52 18,6 C 10,9 C 0,0 UV-I 0,0 C 64 % 98 % 0 % 1003,6 hPa 0,1 l/m 0,0 km/h (0 Bft) 0 min 2 min 0,0 km/h (0 Bft)
04.10.2012 07:54 18,6 C 10,9 C 0,0 UV-I 0,0 C 64 % 98 % 0 % 1003,6 hPa 0,0 l/m 0,0 km/h (0 Bft) 0 min 2 min 0,0 km/h (0 Bft)
04.10.2012 07:56 18,6 C 10,9 C 0,0 UV-I 0,0 C 64 % 98 % 0 % 1003,6 hPa 0,2 l/m 0,0 km/h (0 Bft) 0 min 2 min 0,0 km/h (0 Bft)
04.10.2012 07:58 18,6 C 10,9 C 0,0 UV-I 0,0 C 64 % 98 % 0 % 1003,6 hPa 0,0 l/m 0,0 km/h (0 Bft) 0 min 2 min 0,0 km/h (0 Bft)
04.10.2012 08:00 18,6 C 10,9 C 0,0 UV-I 0,0 C 64 % 98 % 0 % 1003,6 hPa 0,0 l/m 0,0 km/h (0 Bft) 0 min 2 min 0,0 km/h (0 Bft)
04.10.2012 08:02 18,6 C 10,8 C 0,0 UV-I 0,0 C 64 % 98 % 0 % 1003,6 hPa 0,2 l/m 0,0 km/h (0 Bft) 0 min 2 min 0,0 km/h (0 Bft)
04.10.2012 08:04 18,6 C 10,9 C 0,0 UV-I 0,0 C 64 % 98 % 0 % 1003,6 hPa 0,0 l/m 0,0 km/h (0 Bft) 0 min 2 min 0,0 km/h (0 Bft)
04.10.2012 08:06 18,6 C 10,9 C 0,0 UV-I 0,0 C 64 % 98 % 0 % 1003,2 hPa 0,0 l/m 0,0 km/h (0 Bft) 0 min 2 min 0,0 km/h (0 Bft)
04.10.2012 08:08 18,6 C 10,8 C 0,0 UV-I 0,0 C 64 % 98 % 0 % 1003,2 hPa 0,1 l/m 0,0 km/h (0 Bft) 0 min 2 min 0,0 km/h (0 Bft)
04.10.2012 08:10 18,6 C 10,8 C 0,0 UV-I 0,0 C 64 % 98 % 0 % 1003,2 hPa 0,0 l/m 0,0 km/h (0 Bft) 0 min 2 min 0,0 km/h (0 Bft)
04.10.2012 08:12 18,6 C 10,8 C 0,0 UV-I 0,0 C 64 % 98 % 0 % 1003,2 hPa 0,1 l/m 0,0 km/h (0 Bft) 0 min 2 min 0,0 km/h (0 Bft)
04.10.2012 08:14 18,6 C 10,8 C 0,0 UV-I 0,0 C 64 % 98 % 0 % 1003,2 hPa 0,0 l/m 0,0 km/h (0 Bft) 0 min 2 min 0,0 km/h (0 Bft)
04.10.2012 08:16 18,6 C 10,8 C 0,0 UV-I 0,0 C 64 % 98 % 0 % 1003,2 hPa 0,0 l/m 0,0 km/h (0 Bft) 0 min 2 min 0,0 km/h (0 Bft)
04.10.2012 08:18 18,6 C 10,8 C 0,0 UV-I 0,0 C 64 % 98 % 0 % 1003,2 hPa 0,1 l/m 0,0 km/h (0 Bft) 0 min 2 min 0,0 km/h (0 Bft)
04.10.2012 08:20 18,6 C 10,8 C 0,0 UV-I 0,0 C 64 % 98 % 0 % 1003,2 hPa 0,0 l/m 0,4 km/h (0 Bft) 0 min 2 min 5,6 km/h (1 Bft)
04.10.2012 08:22 18,6 C 10,8 C 0,0 UV-I 0,0 C 64 % 98 % 0 % 1003,2 hPa 0,0 l/m 0,8 km/h (0 Bft) 0 min 2 min 0,0 km/h (0 Bft)
04.10.2012 08:24 18,6 C 10,8 C 0,0 UV-I 0,0 C 64 % 98 % 0 % 1003,2 hPa 0,1 l/m 0,8 km/h (0 Bft) 0 min 2 min 0,0 km/h (0 Bft)
04.10.2012 08:26 18,6 C 10,8 C 0,0 UV-I 0,0 C 64 % 98 % 0 % 1002,9 hPa 0,1 l/m 0,8 km/h (0 Bft) 0 min 2 min 0,0 km/h (0 Bft)
04.10.2012 08:28 18,6 C 10,9 C 0,0 UV-I 0,0 C 64 % 98 % 0 % 1002,9 hPa 0,0 l/m 0,8 km/h (0 Bft) 0 min 2 min 0,0 km/h (0 Bft)
04.10.2012 08:30 18,6 C 10,8 C 0,0 UV-I 0,0 C 64 % 98 % 0 % 1002,9 hPa 0,2 l/m 0,4 km/h (0 Bft) 0 min 2 min 0,0 km/h (0 Bft)
04.10.2012 08:32 18,6 C 10,9 C 0,0 UV-I 0,0 C 64 % 98 % 0 % 1002,9 hPa 0,1 l/m 0,0 km/h (0 Bft) 0 min 2 min 0,0 km/h (0 Bft)
04.10.2012 08:34 18,5 C 10,8 C 0,0 UV-I 0,0 C 64 % 98 % 0 % 1002,9 hPa 0,0 l/m 0,0 km/h (0 Bft) 0 min 2 min 4,4 km/h (1 Bft)
04.10.2012 08:36 18,5 C 10,7 C 0,0 UV-I 0,0 C 64 % 98 % 0 % 1002,9 hPa 0,2 l/m 0,8 km/h (0 Bft) 0 min 2 min 4,0 km/h (1 Bft)
04.10.2012 08:38 18,6 C 10,8 C 0,0 UV-I 0,0 C 64 % 98 % 0 % 1002,9 hPa 0,1 l/m 0,8 km/h (0 Bft) 0 min 2 min 0,0 km/h (0 Bft)
04.10.2012 08:40 18,5 C 10,8 C 0,0 UV-I 0,0 C 64 % 98 % 0 % 1002,9 hPa 0,0 l/m 0,8 km/h (0 Bft) 0 min 2 min 0,0 km/h (0 Bft)
04.10.2012 08:42 18,6 C 10,7 C 0,0 UV-I 0,0 C 64 % 98 % 0 % 1002,9 hPa 0,4 l/m 0,8 km/h (0 Bft) 0 min 2 min 0,0 km/h (0 Bft)
04.10.2012 08:44 18,5 C 10,7 C 0,0 UV-I 0,0 C 64 % 98 % 0 % 1002,9 hPa 0,4 l/m 0,8 km/h (0 Bft) 0 min 2 min 0,0 km/h (0 Bft)
04.10.2012 08:46 18,6 C 10,7 C 0,0 UV-I 0,0 C 64 % 98 % 0 % 1003,1 hPa 0,0 l/m 0,4 km/h (0 Bft) 0 min 2 min 0,0 km/h (0 Bft)
04.10.2012 08:48 18,6 C 10,7 C 0,0 UV-I 0,0 C 64 % 98 % 0 % 1003,1 hPa 0,1 l/m 0,0 km/h (0 Bft) 0 min 2 min 0,0 km/h (0 Bft)
04.10.2012 08:50 18,6 C 10,7 C 0,0 UV-I 0,0 C 64 % 98 % 0 % 1003,1 hPa 0,1 l/m 0,0 km/h (0 Bft) 0 min 2 min 0,0 km/h (0 Bft)
04.10.2012 08:52 18,6 C 10,7 C 0,0 UV-I 0,0 C 64 % 98 % 0 % 1003,1 hPa 0,0 l/m 0,0 km/h (0 Bft) 0 min 2 min 0,0 km/h (0 Bft)
04.10.2012 08:54 18,6 C 10,7 C 0,0 UV-I 0,0 C 64 % 98 % 0 % 1003,1 hPa 0,1 l/m 0,0 km/h (0 Bft) 0 min 2 min 0,0 km/h (0 Bft)
04.10.2012 08:56 18,6 C 10,7 C 0,0 UV-I 0,0 C 64 % 98 % 0 % 1003,1 hPa 0,1 l/m 0,0 km/h (0 Bft) 0 min 2 min 0,0 km/h (0 Bft)
04.10.2012 08:58 18,6 C 10,7 C 0,0 UV-I 0,0 C 64 % 98 % 0 % 1003,1 hPa 0,0 l/m 0,0 km/h (0 Bft) 0 min 2 min 0,0 km/h (0 Bft)
04.10.2012 09:00 18,6 C 10,7 C 0,0 UV-I 0,0 C 64 % 98 % 0 % 1003,1 hPa 0,1 l/m 0,0 km/h (0 Bft) 0 min 2 min 0,0 km/h (0 Bft)
04.10.2012 09:02 18,5 C 10,7 C 0,0 UV-I 0,0 C 64 % 98 % 0 % 1003,1 hPa 0,0 l/m 0,8 km/h (0 Bft) 0 min 2 min 9,6 km/h (2 Bft)
04.10.2012 09:06 18,6 C 10,7 C 0,0 UV-I 0,0 C 64 % 98 % 0 % 1003,1 hPa 0,2 l/m 2,0 km/h (1 Bft) 0 min 2 min 5,2 km/h (1 Bft)
04.10.2012 09:08 18,6 C 10,6 C 0,0 UV-I 0,0 C 64 % 98 % 0 % 1003,1 hPa 0,0 l/m 2,8 km/h (1 Bft) 0 min 2 min 7,6 km/h (2 Bft)
04.10.2012 09:10 18,6 C 10,7 C 0,0 UV-I 0,0 C 64 % 98 % 0 % 1003,1 hPa 0,1 l/m 3,6 km/h (1 Bft) 0 min 2 min 9,2 km/h (2 Bft)
04.10.2012 09:12 18,6 C 10,7 C 0,0 UV-I 0,0 C 64 % 98 % 0 % 1003,1 hPa 0,5 l/m 4,0 km/h (1 Bft) 0 min 2 min 0,0 km/h (0 Bft)
04.10.2012 09:14 18,6 C 10,6 C 0,0 UV-I 0,0 C 64 % 98 % 0 % 1003,1 hPa 0,0 l/m 2,4 km/h (1 Bft) 0 min 2 min 0,0 km/h (0 Bft)
04.10.2012 09:16 18,6 C 10,5 C 0,0 UV-I 0,0 C 64 % 98 % 0 % 1003,1 hPa 0,4 l/m 2,4 km/h (1 Bft) 0 min 2 min 5,6 km/h (1 Bft)
04.10.2012 09:18 18,6 C 10,5 C 0,0 UV-I 0,0 C 64 % 98 % 0 % 1003,1 hPa 0,1 l/m 2,4 km/h (1 Bft) 0 min 2 min 6,4 km/h (2 Bft)
04.10.2012 09:20 18,6 C 10,5 C 0,0 UV-I 0,0 C 64 % 98 % 0 % 1003,1 hPa 0,0 l/m 2,4 km/h (1 Bft) 0 min 2 min 0,0 km/h (0 Bft)
04.10.2012 09:22 18,6 C 10,5 C 0,0 UV-I 0,0 C 64 % 98 % 0 % 1003,1 hPa 0,0 l/m 2,0 km/h (1 Bft) 0 min 2 min 9,2 km/h (2 Bft)
04.10.2012 09:24 18,6 C 10,4 C 0,0 UV-I 0,0 C 64 % 98 % 0 % 1003,1 hPa 0,0 l/m 3,2 km/h (1 Bft) 0 min 2 min 5,2 km/h (1 Bft)
04.10.2012 09:26 18,6 C 10,4 C 0,0 UV-I 0,0 C 64 % 98 % 0 % 1003,3 hPa 0,0 l/m 4,4 km/h (1 Bft) 0 min 2 min 13,7 km/h (3 Bft)
04.10.2012 09:28 18,6 C 10,4 C 0,0 UV-I 0,0 C 64 % 98 % 0 % 1003,3 hPa 0,6 l/m 4,4 km/h (1 Bft) 0 min 2 min 0,0 km/h (0 Bft)
04.10.2012 09:30 18,6 C 10,4 C 0,0 UV-I 0,0 C 64 % 98 % 0 % 1003,3 hPa 0,4 l/m 4,8 km/h (1 Bft) 0 min 2 min 10,8 km/h (2 Bft)
04.10.2012 09:32 18,6 C 10,5 C 0,0 UV-I 0,0 C 64 % 98 % 0 % 1003,3 hPa 0,0 l/m 6,0 km/h (2 Bft) 0 min 2 min 13,3 km/h (3 Bft)
04.10.2012 09:34 18,6 C 10,5 C 0,0 UV-I 0,0 C 64 % 98 % 0 % 1003,3 hPa 0,4 l/m 5,2 km/h (1 Bft) 0 min 2 min 0,0 km/h (0 Bft)
04.10.2012 09:36 18,6 C 10,4 C 0,0 UV-I 0,0 C 64 % 98 % 0 % 1003,3 hPa 0,2 l/m 4,8 km/h (1 Bft) 0 min 2 min 0,0 km/h (0 Bft)
04.10.2012 09:38 18,6 C 10,4 C 0,0 UV-I 0,0 C 63 % 98 % 0 % 1003,3 hPa 0,0 l/m 3,6 km/h (1 Bft) 0 min 2 min 0,0 km/h (0 Bft)
04.10.2012 09:40 18,6 C 10,4 C 0,0 UV-I 0,0 C 64 % 98 % 0 % 1003,3 hPa 0,1 l/m 3,2 km/h (1 Bft) 0 min 2 min 0,0 km/h (0 Bft)
04.10.2012 09:42 18,6 C 10,5 C 0,0 UV-I 0,0 C 63 % 98 % 0 % 1003,3 hPa 0,2 l/m 1,6 km/h (1 Bft) 0 min 2 min 0,0 km/h (0 Bft)
04.10.2012 09:43 18,6 C 10,5 C 0,0 UV-I 0,0 C 63 % 98 % 0 % 1003,3 hPa 0,2 l/m 0,8 km/h (0 Bft) 0 min 1 min 6,4 km/h (2 Bft)
04.10.2012 09:48 18,6 C 10,4 C 0,0 UV-I 0,0 C 63 % 98 % 0 % 1003,5 hPa 0,6 l/m 2,0 km/h (1 Bft) 0 min 2 min 8,8 km/h (2 Bft)
04.10.2012 09:53 18,6 C 10,4 C 0,0 UV-I 0,0 C 63 % 98 % 0 % 1003,5 hPa 0,6 l/m 4,0 km/h (1 Bft) 0 min 2 min 0,0 km/h (0 Bft)
04.10.2012 09:58 18,6 C 10,4 C 0,0 UV-I 0,0 C 63 % 98 % 0 % 1003,5 hPa 0,4 l/m 6,4 km/h (2 Bft) 0 min 2 min 14,9 km/h (3 Bft)
04.10.2012 10:03 18,6 C 10,4 C 0,0 UV-I 0,0 C 63 % 98 % 0 % 1003,5 hPa 0,1 l/m 6,4 km/h (2 Bft) 0 min 2 min 10,8 km/h (2 Bft)
04.10.2012 10:08 18,6 C 10,5 C 0,0 UV-I 0,0 C 63 % 98 % 0 % 1003,3 hPa 0,2 l/m 7,2 km/h (2 Bft) 0 min 2 min 10,0 km/h (2 Bft)
04.10.2012 10:13 18,6 C 10,4 C 0,0 UV-I 0,0 C 63 % 98 % 0 % 1003,3 hPa 0,0 l/m 6,8 km/h (2 Bft) 0 min 2 min 6,4 km/h (2 Bft)
04.10.2012 10:18 18,6 C 10,5 C 0,0 UV-I 0,0 C 63 % 98 % 0 % 1003,3 hPa 0,4 l/m 6,0 km/h (2 Bft) 0 min 2 min 11,6 km/h (2 Bft)
04.10.2012 10:23 18,6 C 10,5 C 0,0 UV-I 0,0 C 63 % 98 % 0 % 1003,3 hPa 0,1 l/m 7,6 km/h (2 Bft) 0 min 2 min 17,7 km/h (3 Bft)
04.10.2012 10:28 18,6 C 10,3 C 0,0 UV-I 0,0 C 63 % 98 % 0 % 1003,6 hPa 0,2 l/m 7,6 km/h (2 Bft) 0 min 2 min 0,0 km/h (0 Bft)
04.10.2012 10:33 18,6 C 10,3 C 0,0 UV-I 0,0 C 63 % 98 % 0 % 1003,6 hPa 0,1 l/m 6,0 km/h (2 Bft) 0 min 2 min 0,0 km/h (0 Bft)
04.10.2012 10:38 18,6 C 10,3 C 0,0 UV-I 0,0 C 63 % 98 % 0 % 1003,6 hPa 0,2 l/m 6,0 km/h (2 Bft) 0 min 2 min 11,2 km/h (2 Bft)
04.10.2012 10:43 18,6 C 10,3 C 0,0 UV-I 0,0 C 63 % 98 % 0 % 1003,6 hPa 0,1 l/m 5,2 km/h (1 Bft) 0 min 2 min 0,0 km/h (0 Bft)
04.10.2012 10:48 18,7 C 10,2 C 0,0 UV-I 0,0 C 62 % 98 % 0 % 1004,3 hPa 0,4 l/m 3,6 km/h (1 Bft) 0 min 2 min 0,0 km/h (0 Bft)
04.10.2012 10:53 18,6 C 10,3 C 0,0 UV-I 0,0 C 62 % 98 % 0 % 1004,3 hPa 0,1 l/m 2,8 km/h (1 Bft) 0 min 2 min 15,3 km/h (3 Bft)
04.10.2012 10:58 18,6 C 10,3 C 0,0 UV-I 0,0 C 62 % 98 % 0 % 1004,3 hPa 0,6 l/m 5,2 km/h (1 Bft) 0 min 2 min 7,2 km/h (2 Bft)
04.10.2012 11:03 18,6 C 10,2 C 0,0 UV-I 0,0 C 62 % 98 % 0 % 1004,3 hPa 0,1 l/m 6,4 km/h (2 Bft) 0 min 2 min 8,0 km/h (2 Bft)
04.10.2012 11:08 18,6 C 10,3 C 0,0 UV-I 0,0 C 62 % 98 % 0 % 1004,2 hPa 0,0 l/m 2,4 km/h (1 Bft) 0 min 2 min 0,0 km/h (0 Bft)
04.10.2012 11:13 18,6 C 10,2 C 0,0 UV-I 0,0 C 62 % 98 % 0 % 1004,2 hPa 0,2 l/m 0,8 km/h (0 Bft) 0 min 2 min 0,0 km/h (0 Bft)
04.10.2012 11:18 18,6 C 10,3 C 0,0 UV-I 0,0 C 62 % 98 % 0 % 1004,2 hPa 0,1 l/m 0,4 km/h (0 Bft) 0 min 2 min 4,0 km/h (1 Bft)
04.10.2012 11:20 18,6 C 10,3 C 0,0 UV-I 0,0 C 62 % 98 % 0 % 1004,2 hPa 0,0 l/m 0,4 km/h (0 Bft) 0 min 2 min 5,6 km/h (1 Bft)
04.10.2012 11:22 18,6 C 10,3 C 0,0 UV-I 0,0 C 62 % 98 % 0 % 1004,2 hPa 0,0 l/m 0,8 km/h (0 Bft) 0 min 2 min 4,4 km/h (1 Bft)
04.10.2012 11:24 18,6 C 10,2 C 0,0 UV-I 0,0 C 62 % 98 % 0 % 1004,2 hPa 0,0 l/m 0,8 km/h (0 Bft) 0 min 2 min 0,0 km/h (0 Bft)
04.10.2012 11:26 18,6 C 10,2 C 0,0 UV-I 0,0 C 62 % 98 % 0 % 1004,5 hPa 0,1 l/m 1,2 km/h (1 Bft) 0 min 2 min 0,0 km/h (0 Bft)
04.10.2012 11:28 18,6 C 10,3 C 0,0 UV-I 0,0 C 62 % 98 % 0 % 1004,5 hPa 0,0 l/m 2,0 km/h (1 Bft) 0 min 2 min 10,8 km/h (2 Bft)
04.10.2012 11:30 18,6 C 10,3 C 0,0 UV-I 0,0 C 62 % 98 % 0 % 1004,5 hPa 0,1 l/m 2,0 km/h (1 Bft) 0 min 2 min 0,0 km/h (0 Bft)
04.10.2012 11:32 18,6 C 10,3 C 0,0 UV-I 0,0 C 62 % 98 % 0 % 1004,5 hPa 0,1 l/m 1,6 km/h (1 Bft) 0 min 2 min 0,0 km/h (0 Bft)
04.10.2012 11:34 18,6 C 10,3 C 0,0 UV-I 0,0 C 62 % 98 % 0 % 1004,5 hPa 0,0 l/m 1,6 km/h (1 Bft) 0 min 2 min 0,0 km/h (0 Bft)
04.10.2012 11:36 18,6 C 10,2 C 0,0 UV-I 0,0 C 62 % 98 % 0 % 1004,5 hPa 0,1 l/m 1,6 km/h (1 Bft) 0 min 2 min 8,4 km/h (2 Bft)
04.10.2012 11:38 18,7 C 10,3 C 0,0 UV-I 0,0 C 62 % 98 % 0 % 1004,5 hPa 0,1 l/m 1,6 km/h (1 Bft) 0 min 2 min 4,8 km/h (1 Bft)
04.10.2012 11:40 18,7 C 10,3 C 0,0 UV-I 0,0 C 62 % 98 % 0 % 1004,5 hPa 0,0 l/m 1,2 km/h (1 Bft) 0 min 2 min 0,0 km/h (0 Bft)
04.10.2012 11:42 18,6 C 10,2 C 0,0 UV-I 0,0 C 62 % 98 % 0 % 1004,5 hPa 0,1 l/m 1,2 km/h (1 Bft) 0 min 2 min 0,0 km/h (0 Bft)
04.10.2012 11:44 18,6 C 10,1 C 0,0 UV-I 0,0 C 61 % 98 % 0 % 1004,5 hPa 0,0 l/m 2,0 km/h (1 Bft) 0 min 2 min 7,6 km/h (2 Bft)
04.10.2012 11:46 18,6 C 10,1 C 0,0 UV-I 0,0 C 61 % 98 % 0 % 1005,2 hPa 0,0 l/m 2,4 km/h (1 Bft) 0 min 2 min 5,6 km/h (1 Bft)
04.10.2012 11:48 18,6 C 10,0 C 0,0 UV-I 0,0 C 61 % 98 % 0 % 1005,2 hPa 0,1 l/m 2,4 km/h (1 Bft) 0 min 2 min 0,0 km/h (0 Bft)
04.10.2012 11:50 18,6 C 10,0 C 0,0 UV-I 0,0 C 61 % 98 % 0 % 1005,2 hPa 0,0 l/m 2,8 km/h (1 Bft) 0 min 2 min 15,3 km/h (3 Bft)
04.10.2012 11:52 18,6 C 10,0 C 0,0 UV-I 0,0 C 61 % 98 % 0 % 1005,2 hPa 0,0 l/m 2,8 km/h (1 Bft) 0 min 2 min 4,4 km/h (1 Bft)
04.10.2012 11:54 18,6 C 10,0 C 0,0 UV-I 0,0 C 61 % 98 % 0 % 1005,2 hPa 0,0 l/m 2,8 km/h (1 Bft) 0 min 2 min 5,2 km/h (1 Bft)
04.10.2012 11:56 18,6 C 9,9 C 0,0 UV-I 0,0 C 61 % 98 % 0 % 1005,2 hPa 0,0 l/m 2,4 km/h (1 Bft) 0 min 2 min 0,0 km/h (0 Bft)
04.10.2012 11:58 18,6 C 9,9 C 0,0 UV-I 0,0 C 61 % 98 % 0 % 1005,2 hPa 0,0 l/m 2,0 km/h (1 Bft) 0 min 2 min 0,0 km/h (0 Bft)
04.10.2012 12:00 18,6 C 9,9 C 0,0 UV-I 0,0 C 61 % 98 % 0 % 1005,2 hPa 0,0 l/m 2,0 km/h (1 Bft) 0 min 2 min 0,0 km/h (0 Bft)
04.10.2012 12:02 18,6 C 9,9 C 0,0 UV-I 0,0 C 61 % 98 % 0 % 1005,2 hPa 0,1 l/m 1,2 km/h (1 Bft) 0 min 2 min 0,0 km/h (0 Bft)
04.10.2012 12:04 18,6 C 9,9 C 0,0 UV-I 0,0 C 61 % 98 % 0 % 1005,2 hPa 0,0 l/m 1,2 km/h (1 Bft) 0 min 2 min 0,0 km/h (0 Bft)
04.10.2012 12:06 18,6 C 9,9 C 0,0 UV-I 0,0 C 60 % 98 % 0 % 1005,4 hPa 0,0 l/m 0,4 km/h (0 Bft) 0 min 2 min 0,0 km/h (0 Bft)
04.10.2012 12:08 18,6 C 9,9 C 0,0 UV-I 0,0 C 60 % 98 % 0 % 1005,4 hPa 0,0 l/m 1,2 km/h (1 Bft) 0 min 0 min 9,2 km/h (2 Bft)
04.10.2012 12:10 18,6 C 9,8 C 0,0 UV-I 0,0 C 60 % 98 % 0 % 1005,4 hPa 0,0 l/m 0,8 km/h (0 Bft) 0 min 2 min 0,0 km/h (0 Bft)
04.10.2012 12:12 18,6 C 9,9 C 0,0 UV-I 0,0 C 60 % 98 % 0 % 1005,4 hPa 0,0 l/m 1,6 km/h (1 Bft) 0 min 2 min 11,6 km/h (2 Bft)
04.10.2012 12:14 18,6 C 9,9 C 0,0 UV-I 0,0 C 60 % 98 % 0 % 1005,4 hPa 0,0 l/m 2,4 km/h (1 Bft) 0 min 2 min 4,8 km/h (1 Bft)
04.10.2012 12:16 18,6 C 9,9 C 0,0 UV-I 0,0 C 60 % 98 % 0 % 1005,4 hPa 0,0 l/m 2,4 km/h (1 Bft) 0 min 2 min 4,8 km/h (1 Bft)
04.10.2012 12:18 18,6 C 9,8 C 0,0 UV-I 0,0 C 60 % 98 % 0 % 1005,4 hPa 0,0 l/m 2,4 km/h (1 Bft) 0 min 2 min 0,0 km/h (0 Bft)
04.10.2012 12:20 18,6 C 9,9 C 0,0 UV-I 0,0 C 60 % 98 % 0 % 1005,4 hPa 0,0 l/m 3,2 km/h (1 Bft) 0 min 2 min 12,0 km/h (2 Bft)
04.10.2012 12:22 18,6 C 9,7 C 0,0 UV-I 0,0 C 60 % 98 % 0 % 1005,4 hPa 0,0 l/m 3,6 km/h (1 Bft) 0 min 2 min 13,3 km/h (3 Bft)
04.10.2012 12:24 18,6 C 9,9 C 0,0 UV-I 0,0 C 60 % 98 % 0 % 1005,4 hPa 0,0 l/m 2,8 km/h (1 Bft) 0 min 2 min 0,0 km/h (0 Bft)
04.10.2012 12:26 18,6 C 9,9 C 0,0 UV-I 0,0 C 60 % 98 % 0 % 1006,0 hPa 0,0 l/m 3,6 km/h (1 Bft) 0 min 2 min 0,0 km/h (0 Bft)
04.10.2012 12:28 18,6 C 9,8 C 0,0 UV-I 0,0 C 60 % 98 % 0 % 1006,0 hPa 0,0 l/m 3,2 km/h (1 Bft) 0 min 2 min 0,0 km/h (0 Bft)
04.10.2012 12:30 18,6 C 9,9 C 0,0 UV-I 0,0 C 60 % 98 % 0 % 1006,0 hPa 0,1 l/m 3,6 km/h (1 Bft) 0 min 2 min 7,2 km/h (2 Bft)
04.10.2012 12:32 18,6 C 9,8 C 0,0 UV-I 0,0 C 60 % 98 % 0 % 1006,0 hPa 0,0 l/m 3,2 km/h (1 Bft) 0 min 0 min 5,2 km/h (1 Bft)
04.10.2012 12:34 18,6 C 9,7 C 0,1 UV-I 0,1 C 60 % 98 % 3 % 1006,0 hPa 0,0 l/m 2,8 km/h (1 Bft) 0 min 0 min 0,0 km/h (0 Bft)
04.10.2012 12:36 18,6 C 9,9 C 0,1 UV-I 0,0 C 60 % 98 % 0 % 1006,0 hPa 0,0 l/m 2,0 km/h (1 Bft) 0 min 0 min 0,0 km/h (0 Bft)
04.10.2012 12:38 18,6 C 9,9 C 0,1 UV-I 0,1 C 60 % 98 % 3 % 1006,0 hPa 0,0 l/m 2,8 km/h (1 Bft) 0 min 0 min 4,8 km/h (1 Bft)
04.10.2012 12:40 18,6 C 9,9 C 0,2 UV-I 0,1 C 60 % 98 % 3 % 1006,0 hPa 0,0 l/m 2,8 km/h (1 Bft) 0 min 0 min 6,4 km/h (2 Bft)
04.10.2012 12:42 18,6 C 10,0 C 0,2 UV-I 0,1 C 60 % 98 % 3 % 1006,0 hPa 0,0 l/m 3,6 km/h (1 Bft) 0 min 0 min 10,4 km/h (2 Bft)
04.10.2012 12:44 18,6 C 9,9 C 0,3 UV-I 0,2 C 60 % 98 % 6 % 1006,0 hPa 0,0 l/m 3,6 km/h (1 Bft) 0 min 0 min 5,2 km/h (1 Bft)
04.10.2012 12:46 18,6 C 9,9 C 0,3 UV-I 0,3 C 60 % 98 % 9 % 1006,5 hPa 0,0 l/m 3,6 km/h (1 Bft) 0 min 0 min 6,4 km/h (2 Bft)
04.10.2012 12:48 18,6 C 10,0 C 0,3 UV-I 0,3 C 60 % 98 % 9 % 1006,5 hPa 0,0 l/m 4,4 km/h (1 Bft) 0 min 0 min 12,8 km/h (3 Bft)
04.10.2012 12:50 18,6 C 10,0 C 0,7 UV-I 0,5 C 61 % 98 % 14 % 1006,5 hPa 0,0 l/m 4,0 km/h (1 Bft) 0 min 0 min 0,0 km/h (0 Bft)
04.10.2012 12:52 18,6 C 10,1 C 0,7 UV-I 0,8 C 61 % 98 % 23 % 1006,5 hPa 0,0 l/m 4,0 km/h (1 Bft) 0 min 0 min 8,4 km/h (2 Bft)
04.10.2012 12:54 18,7 C 10,3 C 0,7 UV-I 1,2 C 61 % 98 % 34 % 1006,5 hPa 0,0 l/m 3,6 km/h (1 Bft) 0 min 0 min 12,8 km/h (3 Bft)
04.10.2012 12:56 18,7 C 10,5 C 0,7 UV-I 1,5 C 61 % 99 % 43 % 1006,5 hPa 0,0 l/m 3,6 km/h (1 Bft) 0 min 0 min 4,4 km/h (1 Bft)
04.10.2012 12:58 18,7 C 10,5 C 0,7 UV-I 2,3 C 61 % 98 % 66 % 1006,5 hPa 0,0 l/m 5,2 km/h (1 Bft) 0 min 0 min 15,7 km/h (3 Bft)
04.10.2012 13:00 18,8 C 10,6 C 2,6 UV-I 2,7 C 61 % 98 % 77 % 1006,5 hPa 0,0 l/m 5,6 km/h (1 Bft) 0 min 0 min 6,4 km/h (2 Bft)
04.10.2012 13:02 18,8 C 10,7 C 2,6 UV-I 2,9 C 61 % 99 % 83 % 1006,5 hPa 0,0 l/m 6,0 km/h (2 Bft) 2 min 0 min 9,6 km/h (2 Bft)
04.10.2012 13:04 18,8 C 10,7 C 1,2 UV-I 3,0 C 61 % 98 % 86 % 1006,5 hPa 0,0 l/m 7,2 km/h (2 Bft) 2 min 0 min 12,4 km/h (3 Bft)
04.10.2012 13:06 18,8 C 10,7 C 1,2 UV-I 2,8 C 61 % 98 % 80 % 1006,8 hPa 0,0 l/m 7,2 km/h (2 Bft) 0 min 0 min 0,0 km/h (0 Bft)
04.10.2012 13:08 18,9 C 10,7 C 1,2 UV-I 2,4 C 61 % 98 % 69 % 1006,8 hPa 0,0 l/m 7,6 km/h (2 Bft) 0 min 2 min 9,2 km/h (2 Bft)
04.10.2012 13:10 18,9 C 10,7 C 0,5 UV-I 2,2 C 60 % 98 % 63 % 1006,8 hPa 0,0 l/m 6,8 km/h (2 Bft) 0 min 0 min 26,1 km/h (4 Bft)
04.10.2012 13:12 18,9 C 10,7 C 0,5 UV-I 2,0 C 60 % 98 % 57 % 1006,8 hPa 0,0 l/m 6,4 km/h (2 Bft) 0 min 0 min 4,0 km/h (1 Bft)
04.10.2012 13:14 18,9 C 10,7 C 0,8 UV-I 1,9 C 60 % 98 % 54 % 1006,8 hPa 0,0 l/m 6,4 km/h (2 Bft) 0 min 0 min 14,5 km/h (3 Bft)
04.10.2012 13:16 19,0 C 10,8 C 0,8 UV-I 1,8 C 60 % 99 % 51 % 1006,8 hPa 0,0 l/m 5,6 km/h (1 Bft) 0 min 0 min 12,8 km/h (3 Bft)
04.10.2012 13:18 19,0 C 10,8 C 0,8 UV-I 1,8 C 60 % 99 % 51 % 1006,8 hPa 0,0 l/m 6,4 km/h (2 Bft) 0 min 0 min 18,1 km/h (3 Bft)
04.10.2012 13:20 19,0 C 10,9 C 0,9 UV-I 1,6 C 60 % 98 % 46 % 1006,8 hPa 0,0 l/m 6,4 km/h (2 Bft) 0 min 0 min 12,8 km/h (3 Bft)
04.10.2012 13:22 19,0 C 10,8 C 0,9 UV-I 1,6 C 60 % 98 % 46 % 1006,8 hPa 0,0 l/m 6,0 km/h (2 Bft) 0 min 0 min 6,0 km/h (2 Bft)
04.10.2012 13:24 19,0 C 10,8 C 0,6 UV-I 1,6 C 60 % 98 % 46 % 1006,8 hPa 0,0 l/m 6,0 km/h (2 Bft) 0 min 0 min 0,0 km/h (0 Bft)
04.10.2012 13:26 19,0 C 10,8 C 0,6 UV-I 1,5 C 60 % 98 % 43 % 1007,3 hPa 0,0 l/m 5,6 km/h (1 Bft) 0 min 0 min 0,0 km/h (0 Bft)
04.10.2012 13:28 19,0 C 10,9 C 0,6 UV-I 1,3 C 60 % 98 % 37 % 1007,3 hPa 0,0 l/m 5,2 km/h (1 Bft) 0 min 0 min 5,2 km/h (1 Bft)
04.10.2012 13:30 19,0 C 10,9 C 0,5 UV-I 1,3 C 60 % 98 % 37 % 1007,3 hPa 0,0 l/m 4,4 km/h (1 Bft) 0 min 0 min 0,0 km/h (0 Bft)
04.10.2012 13:32 19,0 C 10,9 C 0,5 UV-I 1,3 C 60 % 98 % 37 % 1007,3 hPa 0,0 l/m 4,0 km/h (1 Bft) 0 min 0 min 8,4 km/h (2 Bft)
04.10.2012 13:34 19,0 C 11,1 C 0,4 UV-I 1,1 C 59 % 98 % 31 % 1007,3 hPa 0,0 l/m 5,2 km/h (1 Bft) 0 min 0 min 28,9 km/h (5 Bft)
04.10.2012 13:36 19,0 C 11,1 C 0,4 UV-I 1,0 C 59 % 98 % 29 % 1007,3 hPa 0,0 l/m 5,2 km/h (1 Bft) 0 min 0 min 17,3 km/h (3 Bft)
04.10.2012 13:38 19,1 C 11,1 C 0,4 UV-I 1,0 C 59 % 97 % 29 % 1007,3 hPa 0,0 l/m 6,0 km/h (2 Bft) 0 min 0 min 4,8 km/h (1 Bft)
04.10.2012 13:40 19,1 C 11,1 C 0,5 UV-I 0,9 C 59 % 97 % 26 % 1007,3 hPa 0,0 l/m 7,2 km/h (2 Bft) 0 min 0 min 28,9 km/h (5 Bft)
04.10.2012 13:42 19,1 C 11,0 C 0,5 UV-I 1,0 C 59 % 97 % 29 % 1007,3 hPa 0,0 l/m 8,0 km/h (2 Bft) 0 min 0 min 9,6 km/h (2 Bft)
04.10.2012 13:44 19,1 C 11,0 C 0,3 UV-I 0,9 C 59 % 97 % 26 % 1007,3 hPa 0,0 l/m 8,4 km/h (2 Bft) 0 min 0 min 0,0 km/h (0 Bft)
04.10.2012 13:46 19,1 C 11,0 C 0,3 UV-I 0,8 C 59 % 97 % 23 % 1007,6 hPa 0,0 l/m 7,6 km/h (2 Bft) 0 min 0 min 8,8 km/h (2 Bft)
04.10.2012 13:48 19,1 C 11,1 C 0,3 UV-I 0,7 C 59 % 97 % 20 % 1007,6 hPa 0,0 l/m 6,8 km/h (2 Bft) 0 min 0 min 5,2 km/h (1 Bft)
04.10.2012 13:50 19,1 C 11,1 C 0,6 UV-I 0,7 C 59 % 97 % 20 % 1007,6 hPa 0,0 l/m 6,4 km/h (2 Bft) 0 min 0 min 5,2 km/h (1 Bft)
04.10.2012 13:52 19,1 C 11,1 C 0,6 UV-I 0,8 C 59 % 97 % 23 % 1007,6 hPa 0,0 l/m 6,0 km/h (2 Bft) 0 min 0 min 7,6 km/h (2 Bft)
04.10.2012 13:54 19,1 C 11,2 C 0,8 UV-I 0,8 C 59 % 97 % 23 % 1007,6 hPa 0,0 l/m 5,6 km/h (1 Bft) 0 min 0 min 17,3 km/h (3 Bft)
04.10.2012 13:56 19,1 C 11,2 C 0,8 UV-I 0,9 C 59 % 97 % 26 % 1007,6 hPa 0,0 l/m 5,6 km/h (1 Bft) 0 min 0 min 9,2 km/h (2 Bft)
04.10.2012 13:58 19,1 C 11,3 C 0,8 UV-I 1,0 C 59 % 97 % 29 % 1007,6 hPa 0,0 l/m 4,8 km/h (1 Bft) 0 min 0 min 5,6 km/h (1 Bft)
04.10.2012 14:00 19,1 C 11,3 C 0,8 UV-I 1,1 C 59 % 97 % 31 % 1007,6 hPa 0,0 l/m 5,2 km/h (1 Bft) 0 min 0 min 19,7 km/h (3 Bft)
04.10.2012 14:02 19,2 C 11,4 C 0,8 UV-I 1,3 C 59 % 97 % 37 % 1007,6 hPa 0,0 l/m 5,6 km/h (1 Bft) 0 min 0 min 10,8 km/h (2 Bft)
04.10.2012 14:04 19,2 C 11,5 C 2,3 UV-I 1,8 C 59 % 97 % 51 % 1007,6 hPa 0,0 l/m 5,2 km/h (1 Bft) 0 min 0 min 8,4 km/h (2 Bft)
04.10.2012 14:06 19,2 C 11,5 C 2,3 UV-I 2,4 C 59 % 97 % 69 % 1008,3 hPa 0,0 l/m 4,8 km/h (1 Bft) 0 min 0 min 0,0 km/h (0 Bft)
04.10.2012 14:08 19,3 C 11,7 C 2,3 UV-I 2,8 C 59 % 97 % 80 % 1008,3 hPa 0,0 l/m 4,8 km/h (1 Bft) 0 min 0 min 10,8 km/h (2 Bft)
04.10.2012 14:10 19,2 C 11,9 C 2,0 UV-I 3,1 C 59 % 97 % 89 % 1008,3 hPa 0,0 l/m 5,6 km/h (1 Bft) 2 min 0 min 8,4 km/h (2 Bft)
04.10.2012 14:12 19,2 C 11,9 C 2,0 UV-I 2,9 C 59 % 97 % 83 % 1008,3 hPa 0,0 l/m 4,8 km/h (1 Bft) 2 min 0 min 9,2 km/h (2 Bft)
04.10.2012 14:14 19,4 C 11,9 C 0,9 UV-I 2,8 C 59 % 97 % 80 % 1008,3 hPa 0,0 l/m 4,8 km/h (1 Bft) 0 min 0 min 5,6 km/h (1 Bft)
04.10.2012 14:16 19,4 C 11,9 C 0,9 UV-I 2,7 C 59 % 96 % 77 % 1008,3 hPa 0,0 l/m 4,4 km/h (1 Bft) 0 min 0 min 11,6 km/h (2 Bft)
04.10.2012 14:18 19,4 C 11,9 C 0,9 UV-I 2,7 C 59 % 96 % 77 % 1008,3 hPa 0,0 l/m 5,2 km/h (1 Bft) 0 min 0 min 7,6 km/h (2 Bft)
04.10.2012 14:20 19,4 C 12,0 C 0,9 UV-I 2,5 C 59 % 96 % 71 % 1008,3 hPa 0,0 l/m 5,6 km/h (1 Bft) 0 min 0 min 10,8 km/h (2 Bft)
04.10.2012 14:22 19,5 C 12,0 C 0,9 UV-I 2,8 C 59 % 96 % 80 % 1008,3 hPa 0,0 l/m 6,0 km/h (2 Bft) 0 min 0 min 6,4 km/h (2 Bft)
04.10.2012 14:24 19,5 C 12,0 C 2,5 UV-I 2,9 C 59 % 96 % 83 % 1008,3 hPa 0,0 l/m 6,0 km/h (2 Bft) 2 min 0 min 9,6 km/h (2 Bft)
04.10.2012 14:26 19,6 C 12,0 C 2,5 UV-I 3,5 C 59 % 96 % 100 % 1008,8 hPa 0,0 l/m 6,4 km/h (2 Bft) 2 min 0 min 18,1 km/h (3 Bft)
04.10.2012 14:28 19,6 C 12,3 C 2,5 UV-I 4,0 C 59 % 96 % 100 % 1008,8 hPa 0,0 l/m 6,0 km/h (2 Bft) 2 min 0 min 6,4 km/h (2 Bft)
04.10.2012 14:30 19,6 C 12,5 C 3,1 UV-I 4,4 C 59 % 96 % 100 % 1008,8 hPa 0,0 l/m 6,0 km/h (2 Bft) 2 min 0 min 4,0 km/h (1 Bft)
04.10.2012 14:32 19,7 C 12,7 C 3,1 UV-I 4,5 C 59 % 95 % 100 % 1008,8 hPa 0,0 l/m 5,6 km/h (1 Bft) 2 min 0 min 7,6 km/h (2 Bft)
04.10.2012 14:34 19,8 C 12,7 C 3,1 UV-I 4,6 C 58 % 95 % 100 % 1008,8 hPa 0,0 l/m 6,0 km/h (2 Bft) 2 min 0 min 16,5 km/h (3 Bft)
04.10.2012 14:36 19,8 C 12,7 C 3,1 UV-I 5,2 C 58 % 94 % 100 % 1008,8 hPa 0,0 l/m 7,2 km/h (2 Bft) 2 min 0 min 11,2 km/h (2 Bft)
04.10.2012 14:38 19,9 C 12,8 C 3,1 UV-I 5,5 C 58 % 94 % 100 % 1008,8 hPa 0,0 l/m 7,6 km/h (2 Bft) 2 min 0 min 15,7 km/h (3 Bft)
04.10.2012 14:40 20,0 C 12,9 C 4,4 UV-I 5,6 C 58 % 93 % 100 % 1008,8 hPa 0,0 l/m 8,0 km/h (2 Bft) 2 min 0 min 12,0 km/h (2 Bft)
04.10.2012 14:42 20,0 C 13,1 C 4,4 UV-I 5,5 C 58 % 94 % 100 % 1008,8 hPa 0,0 l/m 8,0 km/h (2 Bft) 2 min 0 min 7,2 km/h (2 Bft)
04.10.2012 14:44 20,1 C 13,1 C 4,1 UV-I 5,7 C 57 % 93 % 100 % 1008,8 hPa 0,0 l/m 8,0 km/h (2 Bft) 2 min 0 min 4,8 km/h (1 Bft)
04.10.2012 14:46 20,1 C 13,1 C 4,1 UV-I 5,7 C 57 % 93 % 100 % 1010,1 hPa 0,0 l/m 6,8 km/h (2 Bft) 2 min 0 min 8,0 km/h (2 Bft)
04.10.2012 14:48 20,2 C 13,3 C 4,1 UV-I 5,7 C 57 % 93 % 100 % 1010,1 hPa 0,0 l/m 6,4 km/h (2 Bft) 2 min 0 min 7,2 km/h (2 Bft)
04.10.2012 14:50 20,2 C 13,3 C 3,9 UV-I 5,8 C 57 % 92 % 100 % 1010,1 hPa 0,0 l/m 5,6 km/h (1 Bft) 2 min 0 min 0,0 km/h (0 Bft)
04.10.2012 14:52 20,4 C 13,4 C 3,9 UV-I 5,9 C 56 % 91 % 100 % 1010,1 hPa 0,0 l/m 5,2 km/h (1 Bft) 2 min 0 min 6,4 km/h (2 Bft)
04.10.2012 14:54 20,4 C 13,4 C 3,4 UV-I 5,9 C 56 % 91 % 100 % 1010,1 hPa 0,0 l/m 5,6 km/h (1 Bft) 2 min 0 min 16,9 km/h (3 Bft)
04.10.2012 14:56 20,5 C 13,5 C 3,4 UV-I 5,6 C 56 % 91 % 100 % 1010,1 hPa 0,0 l/m 6,8 km/h (2 Bft) 2 min 0 min 14,1 km/h (3 Bft)
04.10.2012 14:58 20,6 C 13,4 C 3,4 UV-I 5,6 C 55 % 89 % 100 % 1010,1 hPa 0,0 l/m 7,6 km/h (2 Bft) 2 min 0 min 23,7 km/h (4 Bft)
04.10.2012 15:00 20,6 C 13,5 C 4,0 UV-I 5,5 C 56 % 89 % 100 % 1010,1 hPa 0,0 l/m 8,0 km/h (2 Bft) 2 min 0 min 8,4 km/h (2 Bft)
04.10.2012 15:02 20,7 C 13,7 C 4,0 UV-I 5,5 C 55 % 90 % 100 % 1010,1 hPa 0,0 l/m 8,0 km/h (2 Bft) 2 min 0 min 9,6 km/h (2 Bft)
04.10.2012 15:04 20,7 C 13,7 C 3,7 UV-I 5,8 C 55 % 88 % 100 % 1010,1 hPa 0,0 l/m 9,2 km/h (2 Bft) 2 min 0 min 13,7 km/h (3 Bft)
04.10.2012 15:06 20,8 C 13,7 C 3,7 UV-I 6,0 C 55 % 88 % 100 % 1009,5 hPa 0,0 l/m 8,4 km/h (2 Bft) 2 min 0 min 8,8 km/h (2 Bft)
04.10.2012 15:08 20,8 C 13,9 C 3,7 UV-I 6,2 C 54 % 89 % 100 % 1009,5 hPa 0,0 l/m 7,6 km/h (2 Bft) 2 min 0 min 10,0 km/h (2 Bft)
04.10.2012 15:10 20,9 C 14,1 C 2,9 UV-I 6,1 C 54 % 88 % 100 % 1009,5 hPa 0,0 l/m 7,2 km/h (2 Bft) 2 min 0 min 14,1 km/h (3 Bft)
04.10.2012 15:12 20,9 C 14,1 C 2,9 UV-I 5,8 C 54 % 87 % 100 % 1009,5 hPa 0,0 l/m 8,0 km/h (2 Bft) 2 min 0 min 9,2 km/h (2 Bft)
04.10.2012 15:14 21,0 C 14,0 C 3,5 UV-I 5,6 C 54 % 87 % 100 % 1009,5 hPa 0,0 l/m 7,2 km/h (2 Bft) 2 min 0 min 4,0 km/h (1 Bft)
04.10.2012 15:16 21,1 C 14,0 C 3,5 UV-I 5,6 C 54 % 86 % 100 % 1009,5 hPa 0,0 l/m 7,2 km/h (2 Bft) 2 min 0 min 9,6 km/h (2 Bft)
04.10.2012 15:18 21,1 C 14,0 C 3,5 UV-I 5,7 C 53 % 87 % 100 % 1009,5 hPa 0,0 l/m 7,6 km/h (2 Bft) 2 min 0 min 0,0 km/h (0 Bft)
04.10.2012 15:20 21,2 C 14,0 C 2,0 UV-I 5,3 C 53 % 85 % 100 % 1009,5 hPa 0,0 l/m 8,0 km/h (2 Bft) 2 min 0 min 12,0 km/h (2 Bft)
04.10.2012 15:22 21,2 C 14,0 C 2,0 UV-I 4,9 C 53 % 85 % 100 % 1009,5 hPa 0,0 l/m 7,6 km/h (2 Bft) 2 min 0 min 11,6 km/h (2 Bft)
04.10.2012 15:24 21,2 C 14,1 C 1,6 UV-I 4,6 C 53 % 84 % 100 % 1009,5 hPa 0,0 l/m 8,0 km/h (2 Bft) 2 min 0 min 20,1 km/h (4 Bft)
04.10.2012 15:26 21,2 C 14,1 C 1,6 UV-I 3,7 C 53 % 84 % 100 % 1009,7 hPa 0,0 l/m 8,0 km/h (2 Bft) 2 min 0 min 10,4 km/h (2 Bft)
04.10.2012 15:28 21,2 C 13,8 C 1,6 UV-I 3,2 C 52 % 84 % 91 % 1009,7 hPa 0,0 l/m 8,8 km/h (2 Bft) 2 min 0 min 14,9 km/h (3 Bft)
04.10.2012 15:30 21,2 C 13,7 C 1,2 UV-I 3,0 C 52 % 85 % 86 % 1009,7 hPa 0,0 l/m 8,4 km/h (2 Bft) 2 min 0 min 7,2 km/h (2 Bft)
04.10.2012 15:32 21,2 C 13,8 C 1,2 UV-I 3,1 C 52 % 85 % 89 % 1009,7 hPa 0,0 l/m 7,6 km/h (2 Bft) 2 min 0 min 4,8 km/h (1 Bft)
04.10.2012 15:34 21,2 C 13,7 C 1,2 UV-I 3,1 C 52 % 84 % 89 % 1009,7 hPa 0,0 l/m 7,6 km/h (2 Bft) 2 min 0 min 7,6 km/h (2 Bft)
04.10.2012 15:36 21,2 C 13,9 C 1,2 UV-I 2,7 C 52 % 85 % 77 % 1009,7 hPa 0,0 l/m 6,4 km/h (2 Bft) 0 min 0 min 7,2 km/h (2 Bft)
04.10.2012 15:38 21,2 C 13,9 C 1,2 UV-I 2,9 C 52 % 84 % 83 % 1009,7 hPa 0,0 l/m 7,2 km/h (2 Bft) 2 min 0 min 11,6 km/h (2 Bft)
04.10.2012 15:40 21,4 C 14,1 C 2,3 UV-I 3,2 C 52 % 83 % 91 % 1009,7 hPa 0,0 l/m 7,2 km/h (2 Bft) 2 min 0 min 7,6 km/h (2 Bft)
04.10.2012 15:42 21,4 C 14,1 C 2,3 UV-I 3,8 C 52 % 84 % 100 % 1009,7 hPa 0,0 l/m 7,6 km/h (2 Bft) 2 min 0 min 6,4 km/h (2 Bft)
04.10.2012 15:44 21,4 C 14,2 C 1,8 UV-I 4,0 C 52 % 83 % 100 % 1009,7 hPa 0,0 l/m 7,6 km/h (2 Bft) 2 min 0 min 6,0 km/h (2 Bft)
04.10.2012 15:46 21,4 C 14,2 C 1,8 UV-I 3,7 C 52 % 83 % 100 % 1008,9 hPa 0,0 l/m 8,0 km/h (2 Bft) 2 min 0 min 12,8 km/h (3 Bft)
04.10.2012 15:48 21,4 C 14,0 C 1,8 UV-I 3,5 C 51 % 82 % 100 % 1008,9 hPa 0,0 l/m 7,2 km/h (2 Bft) 2 min 0 min 8,0 km/h (2 Bft)
04.10.2012 15:50 21,2 C 14,1 C 0,7 UV-I 2,7 C 51 % 82 % 77 % 1008,9 hPa 0,0 l/m 6,0 km/h (2 Bft) 0 min 0 min 0,0 km/h (0 Bft)
04.10.2012 15:52 21,2 C 13,8 C 0,7 UV-I 2,6 C 51 % 80 % 74 % 1008,9 hPa 0,0 l/m 6,8 km/h (2 Bft) 0 min 0 min 16,1 km/h (3 Bft)
04.10.2012 15:54 21,2 C 13,9 C 0,7 UV-I 2,0 C 51 % 81 % 57 % 1008,9 hPa 0,0 l/m 6,0 km/h (2 Bft) 0 min 0 min 4,0 km/h (1 Bft)
04.10.2012 15:56 21,2 C 13,9 C 0,7 UV-I 2,1 C 51 % 81 % 60 % 1008,9 hPa 0,0 l/m 6,0 km/h (2 Bft) 0 min 0 min 5,6 km/h (1 Bft)
04.10.2012 15:58 21,2 C 13,9 C 0,7 UV-I 2,3 C 51 % 81 % 66 % 1008,9 hPa 0,0 l/m 6,4 km/h (2 Bft) 0 min 0 min 10,4 km/h (2 Bft)
04.10.2012 16:00 21,2 C 14,0 C 1,7 UV-I 2,8 C 51 % 82 % 80 % 1008,9 hPa 0,0 l/m 6,0 km/h (2 Bft) 0 min 0 min 4,4 km/h (1 Bft)
04.10.2012 16:02 21,4 C 14,0 C 1,7 UV-I 3,2 C 51 % 82 % 91 % 1008,9 hPa 0,0 l/m 6,0 km/h (2 Bft) 2 min 0 min 10,4 km/h (2 Bft)
04.10.2012 16:04 21,2 C 14,1 C 1,1 UV-I 3,1 C 51 % 81 % 89 % 1008,9 hPa 0,0 l/m 5,6 km/h (1 Bft) 2 min 0 min 19,3 km/h (3 Bft)
04.10.2012 16:06 21,2 C 14,1 C 1,1 UV-I 2,7 C 51 % 81 % 77 % 1009,7 hPa 0,0 l/m 6,4 km/h (2 Bft) 0 min 0 min 12,8 km/h (3 Bft)
04.10.2012 16:08 21,2 C 14,0 C 1,1 UV-I 2,5 C 51 % 78 % 71 % 1009,7 hPa 0,0 l/m 7,2 km/h (2 Bft) 0 min 0 min 25,7 km/h (4 Bft)
04.10.2012 16:10 21,4 C 14,0 C 0,7 UV-I 2,1 C 51 % 79 % 60 % 1009,7 hPa 0,0 l/m 7,6 km/h (2 Bft) 0 min 0 min 8,0 km/h (2 Bft)
04.10.2012 16:12 21,4 C 14,1 C 0,7 UV-I 2,4 C 51 % 79 % 69 % 1009,7 hPa 0,0 l/m 7,6 km/h (2 Bft) 0 min 0 min 11,2 km/h (2 Bft)
04.10.2012 16:14 21,4 C 14,3 C 2,0 UV-I 2,9 C 51 % 81 % 83 % 1009,7 hPa 0,0 l/m 7,2 km/h (2 Bft) 2 min 0 min 4,0 km/h (1 Bft)
04.10.2012 16:16 21,4 C 14,4 C 2,0 UV-I 3,8 C 51 % 80 % 100 % 1009,7 hPa 0,0 l/m 6,4 km/h (2 Bft) 2 min 0 min 9,6 km/h (2 Bft)
04.10.2012 16:18 21,5 C 14,6 C 2,0 UV-I 4,3 C 51 % 80 % 100 % 1009,7 hPa 0,0 l/m 5,2 km/h (1 Bft) 2 min 0 min 10,8 km/h (2 Bft)
04.10.2012 16:20 21,6 C 14,9 C 2,0 UV-I 4,4 C 51 % 80 % 100 % 1009,7 hPa 0,0 l/m 5,2 km/h (1 Bft) 2 min 0 min 21,3 km/h (4 Bft)
04.10.2012 16:22 21,6 C 14,8 C 2,0 UV-I 4,6 C 51 % 78 % 100 % 1009,7 hPa 0,0 l/m 5,2 km/h (1 Bft) 2 min 0 min 10,0 km/h (2 Bft)
04.10.2012 16:24 21,6 C 14,9 C 1,8 UV-I 4,7 C 50 % 78 % 100 % 1009,7 hPa 0,0 l/m 6,0 km/h (2 Bft) 2 min 0 min 7,6 km/h (2 Bft)
04.10.2012 16:26 21,6 C 14,9 C 1,8 UV-I 4,6 C 50 % 78 % 100 % 1009,2 hPa 0,0 l/m 6,8 km/h (2 Bft) 2 min 0 min 9,2 km/h (2 Bft)
04.10.2012 16:28 21,6 C 14,8 C 1,8 UV-I 4,6 C 50 % 76 % 100 % 1009,2 hPa 0,0 l/m 8,4 km/h (2 Bft) 2 min 0 min 12,8 km/h (3 Bft)
04.10.2012 16:30 21,7 C 14,7 C 1,5 UV-I 4,5 C 50 % 77 % 100 % 1009,2 hPa 0,0 l/m 8,4 km/h (2 Bft) 2 min 0 min 10,0 km/h (2 Bft)
04.10.2012 16:32 21,7 C 14,7 C 1,5 UV-I 4,2 C 50 % 76 % 100 % 1009,2 hPa 0,0 l/m 8,4 km/h (2 Bft) 2 min 0 min 11,2 km/h (2 Bft)
04.10.2012 16:34 21,7 C 14,7 C 1,5 UV-I 3,8 C 50 % 77 % 100 % 1009,2 hPa 0,0 l/m 7,6 km/h (2 Bft) 2 min 0 min 12,8 km/h (3 Bft)
04.10.2012 16:36 21,8 C 14,7 C 1,5 UV-I 3,8 C 50 % 77 % 100 % 1009,2 hPa 0,0 l/m 8,0 km/h (2 Bft) 2 min 0 min 6,8 km/h (2 Bft)
04.10.2012 16:38 21,8 C 14,7 C 1,5 UV-I 4,1 C 50 % 78 % 100 % 1009,2 hPa 0,0 l/m 7,2 km/h (2 Bft) 2 min 0 min 6,0 km/h (2 Bft)
04.10.2012 16:40 21,8 C 14,8 C 1,2 UV-I 4,1 C 50 % 77 % 100 % 1009,2 hPa 0,0 l/m 7,2 km/h (2 Bft) 2 min 0 min 11,6 km/h (2 Bft)
04.10.2012 16:42 21,8 C 14,8 C 1,2 UV-I 4,2 C 50 % 77 % 100 % 1009,2 hPa 0,0 l/m 6,8 km/h (2 Bft) 2 min 0 min 5,6 km/h (1 Bft)
04.10.2012 16:44 21,9 C 15,0 C 1,2 UV-I 4,2 C 49 % 75 % 100 % 1009,2 hPa 0,0 l/m 6,8 km/h (2 Bft) 2 min 0 min 24,1 km/h (4 Bft)
04.10.2012 16:46 21,9 C 15,0 C 1,2 UV-I 4,4 C 49 % 75 % 100 % 1009,2 hPa 0,0 l/m 6,4 km/h (2 Bft) 2 min 0 min 14,9 km/h (3 Bft)
04.10.2012 16:48 21,9 C 15,0 C 1,2 UV-I 4,4 C 49 % 75 % 100 % 1009,2 hPa 0,0 l/m 6,8 km/h (2 Bft) 2 min 0 min 6,8 km/h (2 Bft)
04.10.2012 16:50 21,9 C 15,1 C 1,0 UV-I 4,2 C 49 % 74 % 100 % 1009,2 hPa 0,0 l/m 7,2 km/h (2 Bft) 2 min 0 min 12,8 km/h (3 Bft)
04.10.2012 16:52 21,9 C 15,1 C 1,0 UV-I 4,2 C 49 % 74 % 100 % 1009,2 hPa 0,0 l/m 7,2 km/h (2 Bft) 2 min 0 min 12,8 km/h (3 Bft)
04.10.2012 16:54 21,9 C 15,1 C 0,9 UV-I 4,2 C 49 % 74 % 100 % 1009,2 hPa 0,0 l/m 7,6 km/h (2 Bft) 2 min 0 min 11,6 km/h (2 Bft)
04.10.2012 16:56 22,0 C 15,1 C 0,9 UV-I 4,2 C 49 % 75 % 100 % 1009,2 hPa 0,0 l/m 7,2 km/h (2 Bft) 2 min 0 min 8,0 km/h (2 Bft)
04.10.2012 16:58 21,9 C 15,1 C 0,9 UV-I 4,1 C 49 % 74 % 100 % 1009,2 hPa 0,0 l/m 6,4 km/h (2 Bft) 2 min 0 min 8,0 km/h (2 Bft)
04.10.2012 17:00 21,9 C 15,0 C 0,6 UV-I 3,7 C 49 % 75 % 100 % 1009,2 hPa 0,0 l/m 7,2 km/h (2 Bft) 2 min 0 min 16,1 km/h (3 Bft)
04.10.2012 17:02 21,9 C 15,0 C 0,6 UV-I 3,6 C 49 % 74 % 100 % 1009,2 hPa 0,0 l/m 7,2 km/h (2 Bft) 2 min 0 min 8,8 km/h (2 Bft)
04.10.2012 17:04 21,8 C 15,0 C 0,6 UV-I 3,7 C 49 % 74 % 100 % 1009,2 hPa 0,0 l/m 6,8 km/h (2 Bft) 2 min 0 min 7,2 km/h (2 Bft)
04.10.2012 17:06 21,8 C 15,0 C 0,6 UV-I 3,9 C 49 % 74 % 100 % 1010,3 hPa 0,0 l/m 7,2 km/h (2 Bft) 2 min 0 min 19,7 km/h (3 Bft)
04.10.2012 17:08 21,8 C 14,9 C 0,6 UV-I 4,1 C 49 % 74 % 100 % 1010,3 hPa 0,0 l/m 8,0 km/h (2 Bft) 2 min 0 min 8,4 km/h (2 Bft)
04.10.2012 17:10 21,8 C 14,8 C 0,5 UV-I 3,7 C 49 % 73 % 100 % 1010,3 hPa 0,0 l/m 8,8 km/h (2 Bft) 2 min 0 min 10,0 km/h (2 Bft)
04.10.2012 17:12 21,8 C 14,8 C 0,5 UV-I 3,4 C 49 % 74 % 97 % 1010,3 hPa 0,0 l/m 8,0 km/h (2 Bft) 2 min 0 min 11,2 km/h (2 Bft)
04.10.2012 17:14 21,8 C 14,7 C 0,4 UV-I 3,6 C 48 % 74 % 100 % 1010,3 hPa 0,0 l/m 7,6 km/h (2 Bft) 2 min 0 min 4,8 km/h (1 Bft)
04.10.2012 17:16 21,7 C 14,8 C 0,4 UV-I 3,8 C 49 % 74 % 100 % 1010,3 hPa 0,0 l/m 8,8 km/h (2 Bft) 2 min 0 min 23,3 km/h (4 Bft)
04.10.2012 17:18 21,7 C 14,9 C 0,4 UV-I 3,8 C 48 % 74 % 100 % 1010,3 hPa 0,0 l/m 8,0 km/h (2 Bft) 2 min 0 min 8,4 km/h (2 Bft)
04.10.2012 17:20 21,7 C 14,8 C 0,4 UV-I 4,1 C 48 % 74 % 100 % 1010,3 hPa 0,0 l/m 8,0 km/h (2 Bft) 2 min 0 min 18,1 km/h (3 Bft)
04.10.2012 17:22 21,7 C 14,8 C 0,4 UV-I 4,4 C 48 % 74 % 100 % 1010,3 hPa 0,0 l/m 7,6 km/h (2 Bft) 2 min 0 min 17,3 km/h (3 Bft)
04.10.2012 17:24 21,6 C 14,9 C 0,4 UV-I 4,0 C 48 % 74 % 100 % 1010,3 hPa 0,0 l/m 8,0 km/h (2 Bft) 2 min 0 min 8,0 km/h (2 Bft)
04.10.2012 17:26 21,6 C 14,9 C 0,4 UV-I 3,4 C 48 % 74 % 97 % 1010,9 hPa 0,0 l/m 8,0 km/h (2 Bft) 2 min 0 min 12,4 km/h (3 Bft)
04.10.2012 17:28 21,6 C 14,6 C 0,4 UV-I 2,9 C 48 % 74 % 83 % 1010,9 hPa 0,0 l/m 7,6 km/h (2 Bft) 2 min 0 min 22,1 km/h (4 Bft)
04.10.2012 17:30 21,6 C 14,4 C 0,2 UV-I 2,2 C 48 % 73 % 63 % 1010,9 hPa 0,0 l/m 8,4 km/h (2 Bft) 2 min 0 min 15,3 km/h (3 Bft)
04.10.2012 17:32 21,6 C 14,4 C 0,2 UV-I 1,7 C 48 % 74 % 49 % 1010,9 hPa 0,0 l/m 7,6 km/h (2 Bft) 0 min 0 min 5,6 km/h (1 Bft)
04.10.2012 17:34 21,5 C 14,3 C 0,0 UV-I 1,2 C 48 % 74 % 34 % 1010,9 hPa 0,0 l/m 6,0 km/h (2 Bft) 0 min 0 min 6,0 km/h (2 Bft)
04.10.2012 17:36 21,5 C 14,3 C 0,0 UV-I 0,8 C 48 % 74 % 23 % 1010,9 hPa 0,0 l/m 6,0 km/h (2 Bft) 0 min 0 min 11,2 km/h (2 Bft)
04.10.2012 17:38 21,4 C 14,1 C 0,0 UV-I 0,8 C 48 % 75 % 23 % 1010,9 hPa 0,0 l/m 4,8 km/h (1 Bft) 0 min 0 min 4,8 km/h (1 Bft)
04.10.2012 17:40 21,4 C 14,0 C 0,0 UV-I 0,6 C 48 % 75 % 17 % 1010,9 hPa 0,0 l/m 3,6 km/h (1 Bft) 0 min 0 min 12,0 km/h (2 Bft)
04.10.2012 17:42 21,4 C 14,0 C 0,0 UV-I 0,4 C 48 % 75 % 11 % 1010,9 hPa 0,0 l/m 4,0 km/h (1 Bft) 0 min 2 min 15,7 km/h (3 Bft)
04.10.2012 17:44 21,4 C 13,9 C 0,0 UV-I 0,2 C 48 % 76 % 6 % 1010,9 hPa 0,0 l/m 5,2 km/h (1 Bft) 0 min 2 min 5,6 km/h (1 Bft)
04.10.2012 17:46 21,2 C 13,9 C 0,0 UV-I 0,0 C 48 % 76 % 0 % 1011,1 hPa 0,0 l/m 4,8 km/h (1 Bft) 0 min 2 min 5,6 km/h (1 Bft)
04.10.2012 17:48 21,2 C 13,9 C 0,0 UV-I 0,0 C 48 % 77 % 0 % 1011,1 hPa 0,0 l/m 4,8 km/h (1 Bft) 0 min 2 min 8,8 km/h (2 Bft)
04.10.2012 17:50 21,2 C 13,9 C 0,0 UV-I 0,2 C 48 % 77 % 6 % 1011,1 hPa 0,0 l/m 5,6 km/h (1 Bft) 0 min 0 min 10,4 km/h (2 Bft)
04.10.2012 17:52 21,2 C 13,9 C 0,0 UV-I 0,5 C 48 % 77 % 14 % 1011,1 hPa 0,0 l/m 5,2 km/h (1 Bft) 0 min 0 min 5,2 km/h (1 Bft)
04.10.2012 17:54 21,2 C 13,8 C 0,0 UV-I 0,6 C 48 % 78 % 17 % 1011,1 hPa 0,0 l/m 4,4 km/h (1 Bft) 0 min 2 min 0,0 km/h (0 Bft)
04.10.2012 17:56 21,2 C 13,7 C 0,0 UV-I 0,6 C 49 % 78 % 17 % 1011,1 hPa 0,0 l/m 4,0 km/h (1 Bft) 0 min 0 min 17,3 km/h (3 Bft)
04.10.2012 17:58 21,2 C 13,7 C 0,0 UV-I 0,6 C 49 % 78 % 17 % 1011,1 hPa 0,0 l/m 4,0 km/h (1 Bft) 0 min 0 min 0,0 km/h (0 Bft)
04.10.2012 18:00 21,2 C 13,6 C 0,0 UV-I 0,8 C 49 % 78 % 23 % 1011,1 hPa 0,0 l/m 3,2 km/h (1 Bft) 0 min 0 min 0,0 km/h (0 Bft)
04.10.2012 18:02 21,1 C 13,7 C 0,0 UV-I 0,5 C 49 % 79 % 14 % 1011,1 hPa 0,0 l/m 2,8 km/h (1 Bft) 0 min 0 min 5,2 km/h (1 Bft)
04.10.2012 18:04 21,1 C 13,6 C 0,0 UV-I 0,4 C 49 % 78 % 11 % 1011,1 hPa 0,0 l/m 2,8 km/h (1 Bft) 0 min 0 min 0,0 km/h (0 Bft)
04.10.2012 18:06 21,1 C 13,5 C 0,0 UV-I 0,3 C 49 % 78 % 9 % 1011,4 hPa 0,0 l/m 3,2 km/h (1 Bft) 0 min 0 min 11,2 km/h (2 Bft)
04.10.2012 18:08 21,0 C 13,5 C 0,0 UV-I 0,0 C 49 % 78 % 0 % 1011,4 hPa 0,0 l/m 2,8 km/h (1 Bft) 0 min 0 min 0,0 km/h (0 Bft)
04.10.2012 18:10 21,0 C 13,4 C 0,0 UV-I 0,0 C 49 % 78 % 0 % 1011,4 hPa 0,0 l/m 2,8 km/h (1 Bft) 0 min 0 min 0,0 km/h (0 Bft)
04.10.2012 18:12 21,0 C 13,4 C 0,0 UV-I 0,0 C 49 % 78 % 0 % 1011,4 hPa 0,0 l/m 2,8 km/h (1 Bft) 0 min 0 min 0,0 km/h (0 Bft)
04.10.2012 18:14 21,0 C 13,5 C 0,0 UV-I 0,0 C 49 % 79 % 0 % 1011,4 hPa 0,0 l/m 2,0 km/h (1 Bft) 0 min 0 min 6,0 km/h (2 Bft)
04.10.2012 18:16 20,9 C 13,4 C 0,0 UV-I 0,0 C 49 % 79 % 0 % 1011,4 hPa 0,0 l/m 2,0 km/h (1 Bft) 0 min 0 min 5,6 km/h (1 Bft)
04.10.2012 18:18 20,9 C 13,3 C 0,0 UV-I 0,0 C 49 % 79 % 0 % 1011,4 hPa 0,0 l/m 1,2 km/h (1 Bft) 0 min 0 min 4,0 km/h (1 Bft)
04.10.2012 18:20 20,9 C 13,3 C 0,0 UV-I 0,0 C 50 % 79 % 0 % 1011,4 hPa 0,0 l/m 1,2 km/h (1 Bft) 0 min 0 min 0,0 km/h (0 Bft)
04.10.2012 18:22 20,8 C 13,3 C 0,0 UV-I 0,0 C 50 % 80 % 0 % 1011,4 hPa 0,0 l/m 0,8 km/h (0 Bft) 0 min 0 min 0,0 km/h (0 Bft)
04.10.2012 18:24 20,8 C 13,4 C 0,0 UV-I 0,0 C 50 % 80 % 0 % 1011,4 hPa 0,0 l/m 0,8 km/h (0 Bft) 0 min 0 min 5,2 km/h (1 Bft)
04.10.2012 18:26 20,8 C 13,5 C 0,0 UV-I 0,0 C 50 % 80 % 0 % 1011,8 hPa 0,0 l/m 0,8 km/h (0 Bft) 0 min 0 min 0,0 km/h (0 Bft)
04.10.2012 18:28 20,8 C 13,4 C 0,0 UV-I 0,3 C 50 % 80 % 9 % 1011,8 hPa 0,0 l/m 0,4 km/h (0 Bft) 0 min 0 min 0,0 km/h (0 Bft)
04.10.2012 18:30 20,8 C 13,5 C 0,0 UV-I 0,6 C 50 % 80 % 17 % 1011,8 hPa 0,0 l/m 0,8 km/h (0 Bft) 0 min 0 min 0,0 km/h (0 Bft)
04.10.2012 18:32 20,7 C 13,6 C 0,0 UV-I 0,7 C 50 % 80 % 20 % 1011,8 hPa 0,0 l/m 1,2 km/h (1 Bft) 2 min 0 min 4,4 km/h (1 Bft)
04.10.2012 18:34 20,7 C 13,5 C 0,0 UV-I 0,9 C 50 % 80 % 26 % 1011,8 hPa 0,0 l/m 1,2 km/h (1 Bft) 2 min 0 min 0,0 km/h (0 Bft)
04.10.2012 18:36 20,7 C 13,6 C 0,0 UV-I 0,7 C 50 % 80 % 20 % 1011,8 hPa 0,0 l/m 1,6 km/h (1 Bft) 2 min 0 min 5,2 km/h (1 Bft)
04.10.2012 18:38 20,6 C 13,5 C 0,0 UV-I 0,6 C 50 % 80 % 17 % 1011,8 hPa 0,0 l/m 1,6 km/h (1 Bft) 2 min 0 min 0,0 km/h (0 Bft)
04.10.2012 18:40 20,6 C 13,5 C 0,0 UV-I 0,3 C 50 % 80 % 9 % 1011,8 hPa 0,0 l/m 2,0 km/h (1 Bft) 0 min 0 min 7,2 km/h (2 Bft)
04.10.2012 18:42 20,6 C 13,5 C 0,0 UV-I 0,1 C 50 % 79 % 3 % 1011,8 hPa 0,0 l/m 2,8 km/h (1 Bft) 0 min 0 min 4,4 km/h (1 Bft)
04.10.2012 18:44 20,6 C 13,4 C 0,0 UV-I 0,0 C 50 % 79 % 0 % 1011,8 hPa 0,0 l/m 3,2 km/h (1 Bft) 0 min 0 min 8,0 km/h (2 Bft)
04.10.2012 18:46 20,6 C 13,3 C 0,0 UV-I 0,0 C 50 % 79 % 0 % 1012,2 hPa 0,0 l/m 3,6 km/h (1 Bft) 0 min 0 min 4,8 km/h (1 Bft)
04.10.2012 18:48 20,5 C 13,2 C 0,0 UV-I 0,0 C 50 % 79 % 0 % 1012,2 hPa 0,0 l/m 2,8 km/h (1 Bft) 0 min 0 min 0,0 km/h (0 Bft)
04.10.2012 18:50 20,5 C 13,2 C 0,0 UV-I 0,0 C 50 % 79 % 0 % 1012,2 hPa 0,0 l/m 2,8 km/h (1 Bft) 0 min 0 min 0,0 km/h (0 Bft)
04.10.2012 18:52 20,5 C 13,2 C 0,0 UV-I 0,0 C 49 % 79 % 0 % 1012,2 hPa 0,0 l/m 1,2 km/h (1 Bft) 0 min 0 min 0,0 km/h (0 Bft)
04.10.2012 18:54 20,4 C 13,1 C 0,0 UV-I 0,0 C 49 % 79 % 0 % 1012,2 hPa 0,0 l/m 0,8 km/h (0 Bft) 0 min 0 min 0,0 km/h (0 Bft)
04.10.2012 18:56 20,4 C 13,1 C 0,0 UV-I 0,0 C 49 % 78 % 0 % 1012,2 hPa 0,0 l/m 0,4 km/h (0 Bft) 0 min 0 min 0,0 km/h (0 Bft)
04.10.2012 18:58 20,4 C 13,1 C 0,0 UV-I 0,0 C 49 % 78 % 0 % 1012,2 hPa 0,0 l/m 0,0 km/h (0 Bft) 0 min 0 min 0,0 km/h (0 Bft)
04.10.2012 19:00 20,4 C 12,8 C 0,0 UV-I 0,0 C 50 % 78 % 0 % 1012,2 hPa 0,0 l/m 0,4 km/h (0 Bft) 0 min 0 min 0,0 km/h (0 Bft)
04.10.2012 19:02 20,4 C 12,9 C 0,0 UV-I 0,0 C 50 % 78 % 0 % 1012,2 hPa 0,0 l/m 0,8 km/h (0 Bft) 0 min 0 min 0,0 km/h (0 Bft)
04.10.2012 19:04 20,2 C 12,7 C 0,0 UV-I 0,0 C 50 % 78 % 0 % 1012,2 hPa 0,0 l/m 0,8 km/h (0 Bft) 0 min 0 min 0,0 km/h (0 Bft)
04.10.2012 19:06 20,3 C 12,7 C 0,0 UV-I 0,0 C 50 % 78 % 0 % 1012,6 hPa 0,0 l/m 0,8 km/h (0 Bft) 0 min 0 min 0,0 km/h (0 Bft)
04.10.2012 19:08 20,3 C 12,6 C 0,0 UV-I 0,0 C 50 % 78 % 0 % 1012,6 hPa 0,0 l/m 1,2 km/h (1 Bft) 0 min 0 min 0,0 km/h (0 Bft)
04.10.2012 19:10 20,2 C 12,6 C 0,0 UV-I 0,0 C 49 % 78 % 0 % 1012,6 hPa 0,0 l/m 0,8 km/h (0 Bft) 0 min 0 min 0,0 km/h (0 Bft)
04.10.2012 19:12 20,2 C 12,5 C 0,0 UV-I 0,0 C 49 % 78 % 0 % 1012,6 hPa 0,0 l/m 0,4 km/h (0 Bft) 0 min 0 min 0,0 km/h (0 Bft)
04.10.2012 19:14 20,2 C 12,4 C 0,0 UV-I 0,0 C 49 % 78 % 0 % 1012,6 hPa 0,0 l/m 0,4 km/h (0 Bft) 0 min 0 min 0,0 km/h (0 Bft)
04.10.2012 19:16 20,2 C 12,5 C 0,0 UV-I 0,0 C 49 % 78 % 0 % 1012,6 hPa 0,0 l/m 0,4 km/h (0 Bft) 0 min 0 min 0,0 km/h (0 Bft)
04.10.2012 19:18 20,1 C 12,4 C 0,0 UV-I 0,0 C 49 % 79 % 0 % 1012,6 hPa 0,0 l/m 0,0 km/h (0 Bft) 0 min 0 min 0,0 km/h (0 Bft)
04.10.2012 19:20 20,1 C 12,3 C 0,0 UV-I 0,0 C 49 % 79 % 0 % 1012,6 hPa 0,0 l/m 0,0 km/h (0 Bft) 0 min 0 min 0,0 km/h (0 Bft)
04.10.2012 19:22 20,1 C 12,2 C 0,0 UV-I 0,0 C 49 % 79 % 0 % 1012,6 hPa 0,0 l/m 0,0 km/h (0 Bft) 0 min 0 min 0,0 km/h (0 Bft)
04.10.2012 19:24 20,0 C 12,2 C 0,0 UV-I 0,0 C 49 % 79 % 0 % 1012,6 hPa 0,0 l/m 0,0 km/h (0 Bft) 0 min 0 min 0,0 km/h (0 Bft)
04.10.2012 19:26 20,0 C 12,1 C 0,0 UV-I 0,0 C 50 % 79 % 0 % 1012,9 hPa 0,0 l/m 0,0 km/h (0 Bft) 0 min 0 min 0,0 km/h (0 Bft)
04.10.2012 19:28 20,0 C 12,1 C 0,0 UV-I 0,0 C 50 % 79 % 0 % 1012,9 hPa 0,0 l/m 0,0 km/h (0 Bft) 0 min 0 min 0,0 km/h (0 Bft)
04.10.2012 19:30 20,0 C 12,0 C 0,0 UV-I 0,0 C 50 % 79 % 0 % 1012,9 hPa 0,0 l/m 0,0 km/h (0 Bft) 0 min 0 min 0,0 km/h (0 Bft)
04.10.2012 19:32 19,9 C 11,9 C 0,0 UV-I 0,0 C 50 % 79 % 0 % 1012,9 hPa 0,0 l/m 0,0 km/h (0 Bft) 0 min 0 min 0,0 km/h (0 Bft)
04.10.2012 19:34 19,9 C 11,9 C 0,0 UV-I 0,0 C 50 % 79 % 0 % 1012,9 hPa 0,0 l/m 0,0 km/h (0 Bft) 0 min 0 min 0,0 km/h (0 Bft)
04.10.2012 19:36 19,8 C 11,7 C 0,0 UV-I 0,0 C 50 % 80 % 0 % 1012,9 hPa 0,0 l/m 0,0 km/h (0 Bft) 0 min 0 min 0,0 km/h (0 Bft)
04.10.2012 19:38 19,8 C 11,6 C 0,0 UV-I 0,0 C 50 % 80 % 0 % 1012,9 hPa 0,0 l/m 0,0 km/h (0 Bft) 0 min 0 min 0,0 km/h (0 Bft)
04.10.2012 19:40 19,8 C 11,5 C 0,0 UV-I 0,0 C 50 % 81 % 0 % 1012,9 hPa 0,0 l/m 0,0 km/h (0 Bft) 0 min 0 min 0,0 km/h (0 Bft)
04.10.2012 19:42 19,8 C 11,5 C 0,0 UV-I 0,0 C 50 % 81 % 0 % 1012,9 hPa 0,0 l/m 0,0 km/h (0 Bft) 0 min 2 min 0,0 km/h (0 Bft)
04.10.2012 19:44 19,7 C 11,5 C 0,0 UV-I 0,0 C 50 % 81 % 0 % 1012,9 hPa 0,0 l/m 0,0 km/h (0 Bft) 0 min 0 min 0,0 km/h (0 Bft)
04.10.2012 19:46 19,7 C 11,3 C 0,0 UV-I 0,0 C 50 % 81 % 0 % 1013,0 hPa 0,0 l/m 0,0 km/h (0 Bft) 0 min 0 min 0,0 km/h (0 Bft)
04.10.2012 19:48 19,7 C 11,2 C 0,0 UV-I 0,0 C 50 % 81 % 0 % 1013,0 hPa 0,0 l/m 0,0 km/h (0 Bft) 0 min 0 min 0,0 km/h (0 Bft)
04.10.2012 19:50 19,6 C 11,2 C 0,0 UV-I 0,0 C 51 % 81 % 0 % 1013,0 hPa 0,0 l/m 0,0 km/h (0 Bft) 0 min 0 min 0,0 km/h (0 Bft)
04.10.2012 19:52 19,6 C 11,2 C 0,0 UV-I 0,0 C 51 % 81 % 0 % 1013,0 hPa 0,0 l/m 0,0 km/h (0 Bft) 0 min 2 min 4,8 km/h (1 Bft)
04.10.2012 19:54 19,6 C 11,1 C 0,0 UV-I 0,0 C 51 % 82 % 0 % 1013,0 hPa 0,0 l/m 0,0 km/h (0 Bft) 0 min 0 min 0,0 km/h (0 Bft)
04.10.2012 19:56 19,6 C 11,1 C 0,0 UV-I 0,0 C 51 % 82 % 0 % 1013,0 hPa 0,0 l/m 0,0 km/h (0 Bft) 0 min 0 min 0,0 km/h (0 Bft)
04.10.2012 19:58 19,5 C 11,0 C 0,0 UV-I 0,0 C 51 % 82 % 0 % 1013,0 hPa 0,0 l/m 0,0 km/h (0 Bft) 0 min 0 min 0,0 km/h (0 Bft)
04.10.2012 20:00 19,5 C 10,9 C 0,0 UV-I 0,0 C 51 % 82 % 0 % 1013,0 hPa 0,0 l/m 0,0 km/h (0 Bft) 0 min 0 min 0,0 km/h (0 Bft)
04.10.2012 20:02 19,5 C 10,9 C 0,0 UV-I 0,0 C 50 % 82 % 0 % 1013,0 hPa 0,0 l/m 0,0 km/h (0 Bft) 0 min 0 min 0,0 km/h (0 Bft)
04.10.2012 20:04 19,4 C 10,8 C 0,0 UV-I 0,0 C 51 % 82 % 0 % 1013,0 hPa 0,0 l/m 0,0 km/h (0 Bft) 0 min 0 min 0,0 km/h (0 Bft)
04.10.2012 20:06 19,4 C 10,8 C 0,0 UV-I 0,0 C 51 % 82 % 0 % 1013,6 hPa 0,0 l/m 0,0 km/h (0 Bft) 0 min 0 min 0,0 km/h (0 Bft)
04.10.2012 20:08 19,4 C 10,8 C 0,0 UV-I 0,0 C 50 % 82 % 0 % 1013,6 hPa 0,0 l/m 0,0 km/h (0 Bft) 0 min 0 min 0,0 km/h (0 Bft)
04.10.2012 20:10 19,4 C 10,7 C 0,0 UV-I 0,0 C 51 % 82 % 0 % 1013,6 hPa 0,0 l/m 0,0 km/h (0 Bft) 0 min 0 min 4,0 km/h (1 Bft)
04.10.2012 20:12 19,2 C 10,7 C 0,0 UV-I 0,0 C 51 % 83 % 0 % 1013,6 hPa 0,0 l/m 0,4 km/h (0 Bft) 0 min 0 min 0,0 km/h (0 Bft)
04.10.2012 20:14 19,2 C 10,7 C 0,0 UV-I 0,0 C 50 % 83 % 0 % 1013,6 hPa 0,0 l/m 0,4 km/h (0 Bft) 0 min 0 min 0,0 km/h (0 Bft)
04.10.2012 20:16 19,2 C 10,7 C 0,0 UV-I 0,0 C 50 % 83 % 0 % 1013,6 hPa 0,0 l/m 0,4 km/h (0 Bft) 0 min 0 min 0,0 km/h (0 Bft)
04.10.2012 20:18 19,3 C 10,7 C 0,0 UV-I 0,0 C 50 % 83 % 0 % 1013,6 hPa 0,0 l/m 0,4 km/h (0 Bft) 0 min 0 min 0,0 km/h (0 Bft)
04.10.2012 20:20 19,3 C 10,7 C 0,0 UV-I 0,0 C 50 % 83 % 0 % 1013,6 hPa 0,0 l/m 0,4 km/h (0 Bft) 0 min 0 min 0,0 km/h (0 Bft)
04.10.2012 20:22 19,2 C 10,5 C 0,0 UV-I 0,0 C 50 % 83 % 0 % 1013,6 hPa 0,0 l/m 0,0 km/h (0 Bft) 0 min 0 min 0,0 km/h (0 Bft)
04.10.2012 20:24 19,2 C 10,5 C 0,0 UV-I 0,0 C 50 % 83 % 0 % 1013,6 hPa 0,0 l/m 0,0 km/h (0 Bft) 0 min 0 min 0,0 km/h (0 Bft)
04.10.2012 20:26 19,2 C 10,4 C 0,0 UV-I 0,0 C 51 % 83 % 0 % 1013,5 hPa 0,0 l/m 0,0 km/h (0 Bft) 0 min 0 min 0,0 km/h (0 Bft)
04.10.2012 20:28 19,2 C 10,4 C 0,0 UV-I 0,0 C 50 % 83 % 0 % 1013,5 hPa 0,0 l/m 0,0 km/h (0 Bft) 0 min 0 min 0,0 km/h (0 Bft)
04.10.2012 20:30 19,2 C 10,5 C 0,0 UV-I 0,0 C 50 % 83 % 0 % 1013,5 hPa 0,0 l/m 0,0 km/h (0 Bft) 0 min 0 min 0,0 km/h (0 Bft)
04.10.2012 20:32 19,1 C 10,5 C 0,0 UV-I 0,0 C 50 % 83 % 0 % 1013,5 hPa 0,0 l/m 0,0 km/h (0 Bft) 0 min 0 min 0,0 km/h (0 Bft)
04.10.2012 20:34 19,1 C 10,4 C 0,0 UV-I 0,0 C 51 % 83 % 0 % 1013,5 hPa 0,0 l/m 0,0 km/h (0 Bft) 0 min 2 min 0,0 km/h (0 Bft)
04.10.2012 20:36 19,1 C 10,3 C 0,0 UV-I 0,0 C 51 % 83 % 0 % 1013,5 hPa 0,0 l/m 0,0 km/h (0 Bft) 0 min 0 min 0,0 km/h (0 Bft)
04.10.2012 20:38 19,1 C 10,3 C 0,0 UV-I 0,0 C 51 % 83 % 0 % 1013,5 hPa 0,0 l/m 0,0 km/h (0 Bft) 0 min 2 min 0,0 km/h (0 Bft)
04.10.2012 20:40 19,0 C 10,3 C 0,0 UV-I 0,0 C 51 % 84 % 0 % 1013,5 hPa 0,0 l/m 0,0 km/h (0 Bft) 0 min 0 min 0,0 km/h (0 Bft)
04.10.2012 20:42 19,0 C 10,2 C 0,0 UV-I 0,0 C 51 % 84 % 0 % 1013,5 hPa 0,0 l/m 0,0 km/h (0 Bft) 0 min 0 min 0,0 km/h (0 Bft)
04.10.2012 20:44 19,0 C 10,3 C 0,0 UV-I 0,0 C 51 % 84 % 0 % 1013,5 hPa 0,0 l/m 0,0 km/h (0 Bft) 0 min 0 min 0,0 km/h (0 Bft)
04.10.2012 20:46 19,0 C 10,3 C 0,0 UV-I 0,0 C 51 % 84 % 0 % 1013,5 hPa 0,0 l/m 0,0 km/h (0 Bft) 0 min 0 min 0,0 km/h (0 Bft)
04.10.2012 20:48 19,0 C 10,3 C 0,0 UV-I 0,0 C 51 % 84 % 0 % 1013,5 hPa 0,0 l/m 0,0 km/h (0 Bft) 0 min 0 min 0,0 km/h (0 Bft)
04.10.2012 20:50 19,0 C 10,3 C 0,0 UV-I 0,0 C 51 % 84 % 0 % 1013,5 hPa 0,0 l/m 0,0 km/h (0 Bft) 0 min 0 min 0,0 km/h (0 Bft)
04.10.2012 20:52 18,9 C 10,3 C 0,0 UV-I 0,0 C 51 % 84 % 0 % 1013,5 hPa 0,0 l/m 0,0 km/h (0 Bft) 0 min 0 min 0,0 km/h (0 Bft)
04.10.2012 20:54 18,9 C 10,3 C 0,0 UV-I 0,0 C 51 % 84 % 0 % 1013,5 hPa 0,0 l/m 0,0 km/h (0 Bft) 0 min 0 min 0,0 km/h (0 Bft)
04.10.2012 20:56 18,9 C 10,2 C 0,0 UV-I 0,0 C 51 % 84 % 0 % 1013,5 hPa 0,0 l/m 0,0 km/h (0 Bft) 0 min 0 min 0,0 km/h (0 Bft)
04.10.2012 20:58 18,9 C 10,1 C 0,0 UV-I 0,0 C 51 % 84 % 0 % 1013,5 hPa 0,0 l/m 0,0 km/h (0 Bft) 0 min 0 min 0,0 km/h (0 Bft)
04.10.2012 21:00 18,8 C 10,1 C 0,0 UV-I 0,0 C 51 % 84 % 0 % 1013,5 hPa 0,0 l/m 0,0 km/h (0 Bft) 0 min 0 min 0,0 km/h (0 Bft)
04.10.2012 21:02 18,8 C 10,1 C 0,0 UV-I 0,0 C 51 % 84 % 0 % 1013,5 hPa 0,0 l/m 0,0 km/h (0 Bft) 0 min 0 min 0,0 km/h (0 Bft)
04.10.2012 21:04 18,8 C 10,0 C 0,0 UV-I 0,0 C 51 % 84 % 0 % 1013,5 hPa 0,0 l/m 0,4 km/h (0 Bft) 0 min 0 min 0,0 km/h (0 Bft)
04.10.2012 21:06 18,8 C 10,1 C 0,0 UV-I 0,0 C 51 % 84 % 0 % 1013,9 hPa 0,0 l/m 0,4 km/h (0 Bft) 0 min 0 min 0,0 km/h (0 Bft)
04.10.2012 21:08 18,8 C 10,1 C 0,0 UV-I 0,0 C 51 % 84 % 0 % 1013,9 hPa 0,0 l/m 0,4 km/h (0 Bft) 0 min 0 min 0,0 km/h (0 Bft)
04.10.2012 21:10 18,8 C 10,0 C 0,0 UV-I 0,0 C 52 % 84 % 0 % 1013,9 hPa 0,0 l/m 0,4 km/h (0 Bft) 0 min 0 min 0,0 km/h (0 Bft)
04.10.2012 21:12 18,7 C 9,9 C 0,0 UV-I 0,0 C 52 % 85 % 0 % 1013,9 hPa 0,0 l/m 0,4 km/h (0 Bft) 0 min 0 min 0,0 km/h (0 Bft)
04.10.2012 21:14 18,7 C 9,9 C 0,0 UV-I 0,0 C 52 % 85 % 0 % 1013,9 hPa 0,0 l/m 0,4 km/h (0 Bft) 0 min 0 min 0,0 km/h (0 Bft)
04.10.2012 21:16 18,7 C 9,9 C 0,0 UV-I 0,0 C 52 % 85 % 0 % 1013,9 hPa 0,0 l/m 0,0 km/h (0 Bft) 0 min 0 min 0,0 km/h (0 Bft)
04.10.2012 21:18 18,7 C 9,9 C 0,0 UV-I 0,0 C 52 % 85 % 0 % 1013,9 hPa 0,0 l/m 0,0 km/h (0 Bft) 0 min 0 min 0,0 km/h (0 Bft)
04.10.2012 21:20 18,7 C 9,7 C 0,0 UV-I 0,0 C 52 % 85 % 0 % 1013,9 hPa 0,0 l/m 0,0 km/h (0 Bft) 0 min 0 min 0,0 km/h (0 Bft)
04.10.2012 21:22 18,6 C 9,7 C 0,0 UV-I 0,0 C 52 % 85 % 0 % 1013,9 hPa 0,0 l/m 0,0 km/h (0 Bft) 0 min 0 min 0,0 km/h (0 Bft)
04.10.2012 21:24 18,6 C 9,6 C 0,0 UV-I 0,0 C 52 % 85 % 0 % 1013,9 hPa 0,0 l/m 0,0 km/h (0 Bft) 0 min 0 min 0,0 km/h (0 Bft)
04.10.2012 21:26 18,6 C 9,7 C 0,0 UV-I 0,0 C 52 % 85 % 0 % 1013,6 hPa 0,0 l/m 0,0 km/h (0 Bft) 0 min 0 min 0,0 km/h (0 Bft)
04.10.2012 21:28 18,6 C 9,7 C 0,0 UV-I 0,0 C 52 % 85 % 0 % 1013,6 hPa 0,0 l/m 0,0 km/h (0 Bft) 0 min 0 min 0,0 km/h (0 Bft)
04.10.2012 21:30 18,6 C 9,6 C 0,0 UV-I 0,0 C 52 % 85 % 0 % 1013,6 hPa 0,0 l/m 0,0 km/h (0 Bft) 0 min 0 min 0,0 km/h (0 Bft)
04.10.2012 21:32 18,6 C 9,5 C 0,0 UV-I 0,0 C 52 % 86 % 0 % 1013,6 hPa 0,0 l/m 0,0 km/h (0 Bft) 0 min 0 min 0,0 km/h (0 Bft)
04.10.2012 21:34 18,6 C 9,5 C 0,0 UV-I 0,0 C 52 % 86 % 0 % 1013,6 hPa 0,0 l/m 0,0 km/h (0 Bft) 0 min 0 min 0,0 km/h (0 Bft)
04.10.2012 21:36 18,6 C 9,5 C 0,0 UV-I 0,0 C 52 % 86 % 0 % 1013,6 hPa 0,0 l/m 0,0 km/h (0 Bft) 0 min 0 min 0,0 km/h (0 Bft)
04.10.2012 21:38 18,5 C 9,5 C 0,0 UV-I 0,0 C 52 % 86 % 0 % 1013,6 hPa 0,0 l/m 0,0 km/h (0 Bft) 0 min 0 min 0,0 km/h (0 Bft)
04.10.2012 21:40 18,5 C 9,4 C 0,0 UV-I 0,0 C 52 % 87 % 0 % 1013,6 hPa 0,0 l/m 0,0 km/h (0 Bft) 0 min 0 min 0,0 km/h (0 Bft)
04.10.2012 21:42 18,5 C 9,5 C 0,0 UV-I 0,0 C 53 % 87 % 0 % 1013,6 hPa 0,0 l/m 0,0 km/h (0 Bft) 0 min 0 min 0,0 km/h (0 Bft)
04.10.2012 21:44 18,5 C 9,5 C 0,0 UV-I 0,0 C 53 % 87 % 0 % 1013,6 hPa 0,0 l/m 0,0 km/h (0 Bft) 0 min 0 min 0,0 km/h (0 Bft)
04.10.2012 21:46 18,5 C 9,4 C 0,0 UV-I 0,0 C 53 % 87 % 0 % 1013,4 hPa 0,0 l/m 0,0 km/h (0 Bft) 0 min 0 min 0,0 km/h (0 Bft)
04.10.2012 21:48 18,5 C 9,3 C 0,0 UV-I 0,0 C 53 % 87 % 0 % 1013,4 hPa 0,0 l/m 0,0 km/h (0 Bft) 0 min 0 min 0,0 km/h (0 Bft)
04.10.2012 21:50 18,5 C 9,3 C 0,0 UV-I 0,0 C 53 % 87 % 0 % 1013,4 hPa 0,0 l/m 0,0 km/h (0 Bft) 0 min 0 min 0,0 km/h (0 Bft)
04.10.2012 21:52 18,5 C 9,3 C 0,0 UV-I 0,0 C 53 % 87 % 0 % 1013,4 hPa 0,0 l/m 0,0 km/h (0 Bft) 0 min 0 min 0,0 km/h (0 Bft)
04.10.2012 21:54 18,4 C 9,2 C 0,0 UV-I 0,0 C 53 % 87 % 0 % 1013,4 hPa 0,0 l/m 0,0 km/h (0 Bft) 0 min 0 min 0,0 km/h (0 Bft)
04.10.2012 21:56 18,4 C 9,2 C 0,0 UV-I 0,0 C 53 % 87 % 0 % 1013,4 hPa 0,0 l/m 0,0 km/h (0 Bft) 0 min 0 min 0,0 km/h (0 Bft)
04.10.2012 21:58 18,4 C 9,2 C 0,0 UV-I 0,0 C 53 % 87 % 0 % 1013,4 hPa 0,0 l/m 0,0 km/h (0 Bft) 0 min 0 min 0,0 km/h (0 Bft)
04.10.2012 22:00 18,4 C 9,3 C 0,0 UV-I 0,0 C 53 % 87 % 0 % 1013,4 hPa 0,0 l/m 0,0 km/h (0 Bft) 0 min 0 min 0,0 km/h (0 Bft)
04.10.2012 22:02 18,4 C 9,3 C 0,0 UV-I 0,0 C 53 % 87 % 0 % 1013,4 hPa 0,0 l/m 0,0 km/h (0 Bft) 0 min 0 min 0,0 km/h (0 Bft)
04.10.2012 22:04 18,4 C 9,2 C 0,0 UV-I 0,0 C 53 % 88 % 0 % 1013,4 hPa 0,0 l/m 0,0 km/h (0 Bft) 0 min 0 min 0,0 km/h (0 Bft)
04.10.2012 22:06 18,4 C 9,2 C 0,0 UV-I 0,0 C 53 % 88 % 0 % 1013,8 hPa 0,0 l/m 0,0 km/h (0 Bft) 0 min 0 min 0,0 km/h (0 Bft)
04.10.2012 22:08 18,4 C 9,2 C 0,0 UV-I 0,0 C 53 % 88 % 0 % 1013,8 hPa 0,0 l/m 0,0 km/h (0 Bft) 0 min 0 min 0,0 km/h (0 Bft)
04.10.2012 22:10 18,4 C 9,1 C 0,0 UV-I 0,0 C 53 % 88 % 0 % 1013,8 hPa 0,0 l/m 0,0 km/h (0 Bft) 0 min 0 min 0,0 km/h (0 Bft)
04.10.2012 22:12 18,4 C 9,1 C 0,0 UV-I 0,0 C 53 % 88 % 0 % 1013,8 hPa 0,0 l/m 0,0 km/h (0 Bft) 0 min 0 min 0,0 km/h (0 Bft)
04.10.2012 22:14 18,4 C 9,2 C 0,0 UV-I 0,0 C 53 % 88 % 0 % 1013,8 hPa 0,0 l/m 0,0 km/h (0 Bft) 0 min 0 min 0,0 km/h (0 Bft)
04.10.2012 22:16 18,4 C 9,1 C 0,0 UV-I 0,0 C 53 % 88 % 0 % 1013,8 hPa 0,0 l/m 0,0 km/h (0 Bft) 0 min 0 min 0,0 km/h (0 Bft)
04.10.2012 22:18 18,4 C 9,1 C 0,0 UV-I 0,0 C 54 % 89 % 0 % 1013,8 hPa 0,0 l/m 0,0 km/h (0 Bft) 0 min 0 min 0,0 km/h (0 Bft)
04.10.2012 22:20 18,4 C 9,1 C 0,0 UV-I 0,0 C 54 % 89 % 0 % 1013,8 hPa 0,0 l/m 0,0 km/h (0 Bft) 0 min 0 min 0,0 km/h (0 Bft)
04.10.2012 22:22 18,2 C 9,1 C 0,0 UV-I 0,0 C 54 % 89 % 0 % 1013,8 hPa 0,0 l/m 0,0 km/h (0 Bft) 0 min 0 min 0,0 km/h (0 Bft)
04.10.2012 22:24 18,2 C 9,1 C 0,0 UV-I 0,0 C 54 % 89 % 0 % 1013,8 hPa 0,0 l/m 0,0 km/h (0 Bft) 0 min 0 min 0,0 km/h (0 Bft)
04.10.2012 22:26 18,2 C 9,1 C 0,0 UV-I 0,0 C 54 % 89 % 0 % 1013,8 hPa 0,0 l/m 0,0 km/h (0 Bft) 0 min 0 min 0,0 km/h (0 Bft)
04.10.2012 22:28 18,2 C 9,1 C 0,0 UV-I 0,0 C 54 % 89 % 0 % 1013,8 hPa 0,0 l/m 0,0 km/h (0 Bft) 0 min 0 min 0,0 km/h (0 Bft)
04.10.2012 22:30 18,2 C 9,1 C 0,0 UV-I 0,0 C 54 % 89 % 0 % 1013,8 hPa 0,0 l/m 0,0 km/h (0 Bft) 0 min 0 min 0,0 km/h (0 Bft)
04.10.2012 22:32 18,2 C 9,1 C 0,0 UV-I 0,0 C 54 % 89 % 0 % 1013,8 hPa 0,0 l/m 0,0 km/h (0 Bft) 0 min 0 min 0,0 km/h (0 Bft)
04.10.2012 22:34 18,2 C 9,1 C 0,0 UV-I 0,0 C 54 % 89 % 0 % 1013,8 hPa 0,0 l/m 0,0 km/h (0 Bft) 0 min 0 min 0,0 km/h (0 Bft)
04.10.2012 22:36 18,3 C 9,1 C 0,0 UV-I 0,0 C 54 % 89 % 0 % 1013,8 hPa 0,0 l/m 0,4 km/h (0 Bft) 0 min 0 min 8,0 km/h (2 Bft)
04.10.2012 22:38 18,3 C 9,1 C 0,0 UV-I 0,0 C 54 % 90 % 0 % 1013,8 hPa 0,0 l/m 0,8 km/h (0 Bft) 0 min 0 min 0,0 km/h (0 Bft)
04.10.2012 22:40 18,3 C 9,2 C 0,0 UV-I 0,0 C 54 % 90 % 0 % 1013,8 hPa 0,0 l/m 1,2 km/h (1 Bft) 0 min 0 min 4,4 km/h (1 Bft)
04.10.2012 22:42 18,3 C 9,2 C 0,0 UV-I 0,0 C 54 % 90 % 0 % 1013,8 hPa 0,0 l/m 1,2 km/h (1 Bft) 0 min 0 min 0,0 km/h (0 Bft)
04.10.2012 22:44 18,3 C 9,2 C 0,0 UV-I 0,0 C 54 % 90 % 0 % 1013,8 hPa 0,0 l/m 1,2 km/h (1 Bft) 0 min 0 min 0,0 km/h (0 Bft)
04.10.2012 22:46 18,3 C 9,3 C 0,0 UV-I 0,0 C 54 % 90 % 0 % 1013,9 hPa 0,0 l/m 0,8 km/h (0 Bft) 0 min 0 min 0,0 km/h (0 Bft)
04.10.2012 22:48 18,2 C 9,3 C 0,0 UV-I 0,0 C 54 % 90 % 0 % 1013,9 hPa 0,0 l/m 0,4 km/h (0 Bft) 0 min 0 min 0,0 km/h (0 Bft)
04.10.2012 22:50 18,3 C 9,2 C 0,0 UV-I 0,0 C 54 % 90 % 0 % 1013,9 hPa 0,0 l/m 0,4 km/h (0 Bft) 0 min 0 min 0,0 km/h (0 Bft)
04.10.2012 22:52 18,2 C 9,2 C 0,0 UV-I 0,0 C 54 % 90 % 0 % 1013,9 hPa 0,0 l/m 0,4 km/h (0 Bft) 0 min 0 min 0,0 km/h (0 Bft)
04.10.2012 22:54 18,3 C 9,3 C 0,0 UV-I 0,0 C 54 % 90 % 0 % 1013,9 hPa 0,0 l/m 0,4 km/h (0 Bft) 0 min 0 min 4,0 km/h (1 Bft)
04.10.2012 22:56 18,2 C 9,3 C 0,0 UV-I 0,0 C 54 % 91 % 0 % 1013,9 hPa 0,0 l/m 0,8 km/h (0 Bft) 0 min 0 min 4,0 km/h (1 Bft)
04.10.2012 22:58 18,2 C 9,4 C 0,0 UV-I 0,0 C 54 % 91 % 0 % 1013,9 hPa 0,0 l/m 0,8 km/h (0 Bft) 0 min 0 min 0,0 km/h (0 Bft)
04.10.2012 23:00 18,2 C 9,5 C 0,0 UV-I 0,0 C 54 % 91 % 0 % 1013,9 hPa 0,0 l/m 1,2 km/h (1 Bft) 0 min 0 min 6,4 km/h (2 Bft)
04.10.2012 23:02 18,2 C 9,5 C 0,0 UV-I 0,0 C 54 % 91 % 0 % 1013,9 hPa 0,0 l/m 1,2 km/h (1 Bft) 0 min 0 min 4,4 km/h (1 Bft)
04.10.2012 23:04 18,2 C 9,4 C 0,0 UV-I 0,0 C 54 % 91 % 0 % 1013,9 hPa 0,0 l/m 1,2 km/h (1 Bft) 0 min 0 min 0,0 km/h (0 Bft)
04.10.2012 23:06 18,2 C 9,5 C 0,0 UV-I 0,0 C 54 % 91 % 0 % 1014,3 hPa 0,0 l/m 0,8 km/h (0 Bft) 0 min 0 min 0,0 km/h (0 Bft)
04.10.2012 23:08 18,2 C 9,5 C 0,0 UV-I 0,0 C 54 % 90 % 0 % 1014,3 hPa 0,0 l/m 1,2 km/h (1 Bft) 0 min 0 min 12,8 km/h (3 Bft)
04.10.2012 23:10 18,2 C 9,5 C 0,0 UV-I 0,0 C 54 % 90 % 0 % 1014,3 hPa 0,0 l/m 1,2 km/h (1 Bft) 0 min 0 min 0,0 km/h (0 Bft)
04.10.2012 23:12 18,2 C 9,6 C 0,0 UV-I 0,0 C 54 % 90 % 0 % 1014,3 hPa 0,0 l/m 1,2 km/h (1 Bft) 0 min 0 min 4,8 km/h (1 Bft)
04.10.2012 23:14 18,2 C 9,6 C 0,0 UV-I 0,0 C 54 % 90 % 0 % 1014,3 hPa 0,0 l/m 1,6 km/h (1 Bft) 0 min 0 min 12,8 km/h (3 Bft)
04.10.2012 23:16 18,2 C 9,6 C 0,0 UV-I 0,0 C 54 % 90 % 0 % 1014,3 hPa 0,0 l/m 1,6 km/h (1 Bft) 0 min 0 min 0,0 km/h (0 Bft)
04.10.2012 23:18 18,2 C 9,7 C 0,0 UV-I 0,0 C 53 % 90 % 0 % 1014,3 hPa 0,0 l/m 1,6 km/h (1 Bft) 0 min 2 min 0,0 km/h (0 Bft)
04.10.2012 23:20 18,2 C 9,7 C 0,0 UV-I 0,0 C 53 % 90 % 0 % 1014,3 hPa 0,0 l/m 1,2 km/h (1 Bft) 0 min 0 min 4,0 km/h (1 Bft)
04.10.2012 23:22 18,2 C 9,8 C 0,0 UV-I 0,0 C 54 % 90 % 0 % 1014,3 hPa 0,0 l/m 0,8 km/h (0 Bft) 0 min 0 min 7,2 km/h (2 Bft)
04.10.2012 23:24 18,2 C 9,9 C 0,0 UV-I 0,0 C 53 % 90 % 0 % 1014,3 hPa 0,0 l/m 1,6 km/h (1 Bft) 0 min 0 min 5,2 km/h (1 Bft)
04.10.2012 23:26 18,2 C 9,8 C 0,0 UV-I 0,0 C 53 % 90 % 0 % 1014,4 hPa 0,0 l/m 1,2 km/h (1 Bft) 0 min 0 min 4,4 km/h (1 Bft)
04.10.2012 23:28 18,2 C 9,9 C 0,0 UV-I 0,0 C 53 % 90 % 0 % 1014,4 hPa 0,0 l/m 1,6 km/h (1 Bft) 0 min 0 min 6,4 km/h (2 Bft)
04.10.2012 23:30 18,2 C 9,9 C 0,0 UV-I 0,0 C 53 % 90 % 0 % 1014,4 hPa 0,0 l/m 2,4 km/h (1 Bft) 0 min 0 min 8,8 km/h (2 Bft)
04.10.2012 23:32 18,2 C 9,9 C 0,0 UV-I 0,0 C 53 % 90 % 0 % 1014,4 hPa 0,0 l/m 2,4 km/h (1 Bft) 0 min 0 min 0,0 km/h (0 Bft)
04.10.2012 23:34 18,2 C 9,9 C 0,0 UV-I 0,0 C 53 % 90 % 0 % 1014,4 hPa 0,0 l/m 2,4 km/h (1 Bft) 0 min 0 min 13,3 km/h (3 Bft)
04.10.2012 23:36 18,2 C 9,9 C 0,0 UV-I 0,0 C 53 % 89 % 0 % 1014,4 hPa 0,0 l/m 3,2 km/h (1 Bft) 0 min 0 min 4,8 km/h (1 Bft)
04.10.2012 23:38 18,2 C 10,0 C 0,0 UV-I 0,0 C 53 % 89 % 0 % 1014,4 hPa 0,0 l/m 3,2 km/h (1 Bft) 0 min 0 min 5,2 km/h (1 Bft)
04.10.2012 23:40 18,2 C 10,1 C 0,0 UV-I 0,0 C 53 % 89 % 0 % 1014,4 hPa 0,0 l/m 3,2 km/h (1 Bft) 0 min 0 min 0,0 km/h (0 Bft)
04.10.2012 23:42 18,3 C 10,0 C 0,0 UV-I 0,0 C 53 % 89 % 0 % 1014,4 hPa 0,0 l/m 2,8 km/h (1 Bft) 0 min 0 min 4,0 km/h (1 Bft)
04.10.2012 23:44 18,2 C 10,0 C 0,0 UV-I 0,0 C 53 % 89 % 0 % 1014,4 hPa 0,0 l/m 3,2 km/h (1 Bft) 0 min 0 min 6,4 km/h (2 Bft)
04.10.2012 23:46 18,2 C 10,0 C 0,0 UV-I 0,0 C 53 % 89 % 0 % 1014,9 hPa 0,0 l/m 2,4 km/h (1 Bft) 0 min 0 min 0,0 km/h (0 Bft)
04.10.2012 23:48 18,2 C 10,0 C 0,0 UV-I 0,0 C 53 % 89 % 0 % 1014,9 hPa 0,0 l/m 2,4 km/h (1 Bft) 0 min 0 min 0,0 km/h (0 Bft)
04.10.2012 23:50 18,2 C 10,0 C 0,0 UV-I 0,0 C 53 % 89 % 0 % 1014,9 hPa 0,0 l/m 2,0 km/h (1 Bft) 0 min 0 min 0,0 km/h (0 Bft)
04.10.2012 23:52 18,2 C 10,0 C 0,0 UV-I 0,0 C 53 % 89 % 0 % 1014,9 hPa 0,0 l/m 2,4 km/h (1 Bft) 0 min 0 min 0,0 km/h (0 Bft)
04.10.2012 23:54 18,2 C 10,0 C 0,0 UV-I 0,0 C 53 % 89 % 0 % 1014,9 hPa 0,0 l/m 2,0 km/h (1 Bft) 0 min 0 min 0,0 km/h (0 Bft)
04.10.2012 23:56 18,2 C 10,0 C 0,0 UV-I 0,0 C 53 % 89 % 0 % 1014,9 hPa 0,0 l/m 1,6 km/h (1 Bft) 0 min 0 min 0,0 km/h (0 Bft)
04.10.2012 23:58 18,2 C 10,0 C 0,0 UV-I 0,0 C 53 % 89 % 0 % 1014,9 hPa 0,0 l/m 1,6 km/h (1 Bft) 0 min 0 min 4,4 km/h (1 Bft)
_ Min-Zeit 22:22 22:10 00:00 00:00 17:14 17:10 00:00 08:26 - 02:24 - - 00:00
Minimum _ 18,2 C 9,1 C 0,0 UV-I 0,0 C 48 % 73 % 0 % 1002,9 hPa - 0,0 km/h (0 Bft) - - 0,0 km/h (0 Bft)
_ Max-Zeit 16:56 16:50 14:40 15:08 00:00 12:56 14:26 23:46 01:28 15:04 13:02 01:28 13:34
Maximum _ 22,0 C 15,1 C 4,4 UV-I 6,2 C 64 % 99 % 100 % 1014,9 hPa 1,6 l/m 9,2 km/h
S (2 Bft)
2 min 2 min 28,9 km/h
S-SW (5 Bft)
Durchschnitt _ 19,2 C 11,4 C 0,3 UV-I 0,7 C 58 % 92 % 16 % 1008,0 hPa #37,4 l/m 2,6 km/h (1 Bft) #3:02 h #10:25 h 4,2 km/h (1 Bft)
© 2012 W. Hausmann